     2              OBSERVATION DATA    GPS                 RINEX VERSION / TYPE
teqc 2000Jul20 Karen Wendt 20030613 20:59:35UTC             PGM / RUN BY / DATE
                                                            COMMENT
L2: 1 -> 1; 150 -> 5; 250 -> 9                              COMMENT
L2: 1 -> 1; 150 -> 5; 250 -> 9                              COMMENT
L2: 1 -> 1; 150 -> 5; 250 -> 9                              COMMENT
L2: 1 -> 1; 150 -> 5; 250 -> 9                              COMMENT
L2: 1 -> 1; 150 -> 5; 250 -> 9                              COMMENT
L2: 1 -> 1; 150 -> 5; 250 -> 9                              COMMENT
L2: 1 -> 1; 150 -> 5; 250 -> 9                              COMMENT
L2: 1 -> 1; 150 -> 5; 250 -> 9                              COMMENT
L2: 1 -> 1; 150 -> 5; 250 -> 9                              COMMENT
L2: 1 -> 1; 150 -> 5; 250 -> 9                              COMMENT
L2: 1 -> 1; 150 -> 5; 250 -> 9                              COMMENT
L2: 1 -> 1; 150 -> 5; 250 -> 9                              COMMENT
L2: 1 -> 1; 150 -> 5; 250 -> 9                              COMMENT
L2: 1 -> 1; 150 -> 5; 250 -> 9                              COMMENT
Original Marker Name: mn71 Mine_1971_NCER                   COMMENT
Campaign Name: USGS Death Valley 2003                       COMMENT
4-Character Station Name: MN71                              COMMENT
6-Character Antenna Code: DMRCHT                            COMMENT
Vertical Measurement Point: BCR                             COMMENT
Vertical Offset to Rinex Ref. Point: 0.0348                 COMMENT
Radial Measurement Point: ECF                               COMMENT
Radial Offset to Rinex Ref. Point: 0.1897                   COMMENT
Antenna Height from Field Measurement: 1.4200 m             COMMENT
Additional Antenna Identification Info.:                    COMMENT
Turborogue and Ashtech Choke Ring                           COMMENT
Original XYZ: -2248320.7865 -4579575.7668 3817858.7421      COMMENT
New XYZ position is based on association with SCEC monument COMMENT
E1G0T7B3+0011. Position of that monument is believed to be  COMMENT
valid to within 1 m horizontally; vertical accuracy         COMMENT
should be no worse than 3-times this value.                 COMMENT
                                                            COMMENT
Revised Rinex header created by UCSD GPS archive for        COMMENT
GSAC on 20-Apr-2005 (2005:110) 16:33:17 GMT                 COMMENT
For assistance contact dagnew@ucsd.edu                      COMMENT
or anderson@python.ucsd.edu                                 COMMENT
                                                            COMMENT
MINE 1971                                                   MARKER NAME
JMS US GEOLOGICAL SURVEY                                    OBSERVER / AGENCY
LP019992804 ASHTECH Z-XII3 CD00                             REC # / TYPE / VERS
CR14244 DORNE-MARGOL. TYPE T                                ANT # / TYPE
 -2248344.0000 -4579550.0000  3817843.0000                  APPROX POSITION XYZ
        1.3725        0.0000        0.0000                  ANTENNA: DELTA H/E/N
     1     1     0                                          WAVELENGTH FACT L1/2
     5    C1    L1    L2    P1    P2                        # / TYPES OF OBSERV
    30                                                      INTERVAL
  2003     6     9    22     6   30.000000                  TIME OF FIRST OBS
  2003     6     9    23    59   30.000000                  TIME OF LAST OBS
                                                            END OF HEADER
 03  6  9 22  6 30.0000000  0  8G25G23G18G 3G31G15G14G11
  22332525.106     -292131.28459   -212875.23747  22332524.845    22332530.261
  22385014.066       88673.68659     65617.93647  22385013.088
  22385017.403      170239.13759    124015.67445
  24213866.057      217759.67559    158353.32143
  24148260.704      181167.75359    131151.10645  24148259.588    24148269.917
  23466212.882      296405.50759    218633.70445  23466212.389    23466219.706
  20892100.815       89731.39359     65305.68348  20892100.240    20892102.825
  23007310.106     -293992.37759   -212479.23646  23007312.799    23007317.103
 03  6  9 22  7  0.0000000  0  8G25G23G18G 3G31G15G14G11
  22056783.465    -1741159.94049  -1341988.36847  22056783.837    22056789.228
  22132864.432    -1236380.36649   -966891.75347  22132863.677    22132868.003
  23968349.770    -1119914.86349   -881299.22945                  23968351.825
  23968356.762    -1066220.50749  -1011029.56543
  23901701.633    -1114510.50049   -878468.54345  23901700.357    23901710.568
  23227076.271     -960265.83849   -760590.89645  23227075.880    23227083.171
  20639985.061    -1235144.59549   -967065.24148  20639984.776    20639987.322
  22732712.096    -1737005.30349  -1336904.83146  22732716.538    22732720.810
 03  6  9 22  7 30.0000000  0  8G25G23G18G 3G31G15G14G11
  22041101.304    -1823571.86149  -1406205.33647  22041101.363    22041106.724
  22140743.159    -1194977.47549   -934629.80347  22140742.433    22140746.767
  23982862.278    -1043656.29049   -821877.05145                  23982863.629
  23982868.736     -983912.36349   -946894.18243
  23915181.409    -1043673.05149   -823270.77345  23915180.425    23915190.565
  23247976.449     -850436.13849   -675009.48945  23247975.860    23247983.175
  20647928.568    -1193402.59149   -934539.02648  20647928.087    20647930.585
  22718182.056    -1813373.46649  -1396412.45346  22718184.159    22718188.415
 03  6  9 22  8  0.0000000  0  8G25G23G18G 3G31G15G14G11
  22025479.330    -1905666.41649  -1470175.00347  22025479.268    22025484.592
  22148652.190    -1153415.31749   -902243.74047  22148651.457    22148655.792
  23997396.593     -967282.37649   -762364.98845                  23997397.197
  23997402.239     -901615.56049   -882766.89444                  24599025.190
  23928702.307     -972620.17049   -767905.11945  23928701.515    23928711.597
  23268914.997     -740403.99549   -589270.32945  23268914.285    23268921.727
  20655932.426    -1151342.59249   -901765.02148  20655931.886    20655934.368
  22703716.288    -1889396.08049  -1455650.80346  22703717.484    22703721.740
 03  6  9 22  8 30.0000000  0  8G25G23G18G 3G31G15G14G11
  22009918.980    -1987436.78849  -1533892.06047  22009918.860    22009924.143
  22156592.423    -1111689.24349   -869729.95547  22156591.711    22156596.009
  24011953.243     -890788.81749   -702759.70745  24011953.480    24011958.627
  24614667.959     -819328.66249   -818647.56245  24614667.580    24614683.320
  23942264.460     -901350.61549   -712370.63445  23942263.785    23942273.810
  23289892.431     -630167.37049   -503371.82845  23289891.683    23289899.184
  20663997.170    -1108962.25249   -868741.40348  20663996.613    20663999.099
  22689317.048    -1965066.67649  -1514614.84346  22689317.842    22689322.056
 03  6  9 22  9  0.0000000  0  8G25G23G18G 3G31G15G14G11
  21994420.761    -2068880.57549  -1597354.64447  21994420.600    21994425.824
  22164563.953    -1069798.72349   -837088.03947  22164563.242    22164567.554
  24026532.465     -814175.74049   -643061.28245  24026532.508    24026537.604
  24630324.327     -737054.62049   -754538.23645  24630324.841    24630338.774
  23955867.352     -829867.47149   -656669.72245  23955866.698    23955876.769
  23310908.308     -519728.80149   -417315.97845  23310907.524    23310915.191
  20672122.509    -1066263.51449   -835469.68048  20672121.928    20672124.427
  22674985.126    -2040382.98249  -1573302.82846  22674985.604    22674989.823
 03  6  9 22  9 30.0000000  0  8G25G23G18G 3G31G15G14G11
  21978985.110    -2149995.46249  -1660560.92947  21978984.906    21978990.142
  22172566.832    -1027743.44649   -804317.72247  22172566.152    22172570.448
  24041134.261     -737443.51649   -583270.03045  24041134.109    24041139.309
  24645977.754     -654796.20649   -690441.06845  24645978.144    24645991.916
  23969510.306     -758173.91649   -600804.84645  23969509.604    23969519.768
  23331962.118     -409090.64549   -331104.58745  23331961.409    23331969.106
  20680308.100    -1023248.13449   -801951.22648  20680307.521    20680310.017
  22660720.921    -2115342.91249  -1631713.10046  22660721.179    22660725.409
 03  6  9 22 10  0.0000000  0  8G25G23G18G 3G31G15G14G11
  21963612.460    -2230778.96349  -1723509.00347  21963612.238    21963617.472
  22180601.195     -985522.67049   -771418.44847  22180600.510    22180604.861
  24055758.798     -660592.10749   -523385.92345  24055758.575    24055763.704
  24661627.688     -572556.10549   -626358.15245  24661627.981    24661641.933
  23983192.766     -686272.75249   -544778.18445  23983192.091    23983202.303
  23353053.617     -298254.79849   -244739.16745  23353052.898    23353060.688
  20688553.590     -979918.26249   -768187.70848  20688553.003    20688555.480
  22646524.972    -2189943.88449  -1689843.66946  22646525.067    22646529.273
 03  6  9 22 10 30.0000000  0  8G25G23G18G 3G31G15G14G11
  21948303.316    -2311228.74649  -1786197.04247  21948303.076    21948308.337
  22188667.136     -943135.93849   -738389.86847  22188666.466    22188670.856
  24070405.969     -583621.57649   -463408.98645  24070405.605    24070410.704
  24677273.539     -490337.09049   -562291.68445  24677273.419    24677287.831
  23996913.992     -614167.05249   -488592.16645  23996913.362    23996923.796
  23374182.227     -187223.73249   -158221.63245  23374181.461    23374189.413
  20696858.600     -936275.34849   -734180.26048  20696858.013    20696860.489
  22632397.752    -2264183.56549  -1747692.71746  22632397.707    22632401.947
 03  6  9 22 11  0.0000000  0  8G25G23G18G 3G31G15G14G11
  21933058.437    -2391341.02849  -1848622.09847  21933058.190    21933063.464
  22196765.037     -900581.53749   -705230.63846  22196764.370    22196768.820
  24085076.066     -506530.68849   -403338.26045  24085075.768    24085080.795
  24692915.064     -408140.80249   -498242.94145  24692914.971    24692929.329
  24010673.922     -541858.54149   -432248.11345  24010673.286    24010683.873
  23395347.706      -75998.42249    -71552.73445  23395346.918    23395355.114
  20705223.045     -892320.14849   -699929.47648  20705222.443    20705224.896
  22618339.854    -2338058.77349  -1805257.78246  22618339.719    22618343.953
 03  6  9 22 11 30.0000000  0  8G25G23G18G 3G31G15G14G11
  21917877.688    -2471116.16149  -1910784.44547  21917877.429    21917882.709
  22204894.376     -857861.78549   -671942.56446  22204893.712    22204898.192
  24099768.474     -429322.43349   -343176.08745  24099768.098    24099773.086
  24708551.241     -325972.52049   -434215.99545  24708550.837    24708565.681
  24024471.350     -469353.01949   -375750.53945  24024470.824    24024481.513
  23416549.224       35416.00549     15263.50545  23416548.411    23416556.795
  20713646.046     -848057.34249   -665438.99748  20713645.442    20713647.876
  22604351.217    -2411569.86549  -1862539.10346  22604350.993    22604355.248
 03  6  9 22 12  0.0000000  0  8G25G23G18G 3G31G15G14G11
  21902761.900    -2550549.95049  -1972680.80647  21902761.624    21902766.875
  22213055.537     -814974.80149   -638524.18346  22213054.872    22213059.368
  24114483.527     -351995.04249   -282921.07945  24114483.090    24114488.092
  24724181.841     -243833.58549   -370211.94945  24724181.444    24724196.464
  24038305.986     -396652.08249   -319100.71045  24038305.487    24038316.250
  23437786.604      147018.67749    102226.43545  23437785.748    23437794.257
  20722127.513     -803487.08149   -630708.94448  20722126.910    20722129.323
  22590432.631    -2484712.72949  -1919533.51246  22590432.379    22590436.612
 03  6  9 22 12 30.0000000  0  8G25G23G18G 3G31G15G14G11
  21887711.410    -2629640.48749  -2034309.70947  21887711.133    21887716.350
  22221248.593     -771920.34749   -604975.30746  22221247.930    22221252.398
  24129221.124     -274548.93349   -222573.56845  24129220.718    24129225.762
  24739806.409     -161727.01849   -306233.09845  24739806.039    24739821.091
  24052177.321     -323758.85549   -262301.03845  24052176.735    24052187.621
  23459059.299      258806.98149    189334.00545  23459058.491    23459067.024
  20730667.070     -758611.59549   -595741.05348  20730666.458    20730668.894
  22576584.499    -2557485.41949  -1976239.46046  22576584.206    22576588.416
 03  6  9 22 13  0.0000000  0  8G25G23G18G 3G31G15G14G11
  21872726.642    -2708385.49049  -2095669.35947  21872726.367    21872731.548
  22229473.610     -728698.04849   -571295.63546  22229472.956    22229477.417
  24143981.253     -196984.47449   -162133.84545  24143980.850    24143985.817
  24755424.264      -79655.40349   -242281.46845  24755423.996    24755439.129
  24066084.651     -250676.65049   -205354.11645  24066084.036    24066094.996
  23480366.949      370778.64049    276584.44745  23480366.120    23480374.650
  20739264.307     -713432.87949   -560536.88348  20739263.706    20739266.165
  22562807.132    -2629886.13349  -2032655.57546  22562806.804    22562810.992
 03  6  9 22 13 30.0000000  0  8G25G23G18G 3G31G15G14G11
  21857808.322    -2786781.59949  -2156757.14247  21857808.044    21857813.195
  22237730.902     -685306.05249   -537483.73046  22237730.250    22237734.722
  24158764.101     -119300.77449   -101601.19645  24158763.596    24158768.611
  24771035.319        2379.74349   -178358.28445  24771035.029    24771050.116
  24080027.553     -177407.25449   -148261.33045  24080026.984    24080037.866
  23501709.314      482932.57949    363976.93445  23501708.496    23501716.988
  20747919.155     -667951.52049   -525096.88548  20747918.555    20747921.034
  22549101.179    -2701911.30249  -2088779.03946  22549100.823    22549105.019
 03  6  9 22 14  0.0000000  0  8G25G23G18G 3G31G15G14G11
  21842956.701    -2864827.03949  -2217571.68647  21842956.426    21842961.522
  22246020.311     -641744.99449   -503540.09846  22246019.691    22246024.175
  24173569.406      -41498.91149    -40976.48545  24173568.876    24173573.899
  24786638.770       84374.65249   -114466.43745  24786638.606    24786653.532
  24094005.348     -103954.64649    -91025.76645  24094004.807    24094015.728
  23523085.780      595265.66949    451508.99945  23523084.887    23523093.469
  20756631.060     -622170.35949   -489423.27648  20756630.474    20756632.960
  22535466.932    -2773559.73649  -2144608.96746  22535466.551    22535470.752
 03  6  9 22 14 30.0000000  0  8G25G23G18G 3G31G15G14G11
  21828172.274    -2942519.57249  -2278111.23347  21828171.981    21828177.018
  22254342.101     -598014.11449   -469464.13846  22254341.450    22254345.976
  24188397.260       36421.67449     19740.74945  24188396.761    24188401.780
  24802234.037      166326.67449    -50608.00945  24802233.880    24802248.921
  24108017.414      -30321.48449    -33649.52345  24108016.976    24108027.944
  23544495.937      707775.65749    539178.90845  23544494.995    23544503.569
  20765399.714     -576090.97949   -453517.29048  20765399.133    20765401.626
  22521904.844    -2844828.69449  -2200143.18546  22521904.470    22521908.658
 03  6  9 22 15  0.0000000  0  7G25G23G18G31G15G14G11
  21813455.501    -3019856.37349  -2338373.58247  21813455.209    21813460.197
  22262696.371     -554112.43749   -435255.08246  22262695.736    22262700.233
  24203247.795      114461.36149     80550.81245  24203247.311    24203252.467
  24122063.387       43489.57749     23865.35445  24122062.962    24122074.006
  23565939.488      820461.01049    626985.45845  23565938.529    23565947.036
  20774224.887     -529714.67449   -417379.93248  20774224.304    20774226.795
  22508415.501    -2915715.50049  -2255379.61046  22508415.129    22508419.324
 03  6  9 22 15 30.0000000  0  7G25G23G18G31G15G14G11
  21798807.920    -3096829.68949  -2398352.70247  21798807.640    21798812.574
  22271084.209     -510034.30549   -400908.52246  22271083.580    22271088.060
  24218122.001      192625.20849    141457.59945  24218121.403    24218126.690
  24136143.632      117480.77249     81520.58845  24136143.305    24136154.373
  23587416.944      933324.47549    714930.79945  23587416.001    23587424.352
  20783107.148     -483038.24649   -381008.70848  20783106.565    20783109.051
  22495000.345    -2986212.80149  -2310312.54446  22494999.975    22495004.105
 03  6  9 22 16  0.0000000  0  7G25G23G18G31G15G14G11
  21784228.165    -3173446.47249  -2458054.01147  21784227.883    21784232.811
  22279503.943     -465788.48049   -366431.30546  22279503.301    22279507.847
  24233018.016      270903.56549    202453.60745  24233017.540    24233022.776
  24150255.842      191639.71749    139306.53945  24150255.446    24150266.623
  23608925.993     1046354.28549    803005.76645  23608925.141    23608933.472
  20792044.427     -436072.64949   -344412.16448  20792043.838    20792046.326
  22481657.902    -3056327.64749  -2364947.44946  22481657.522    22481661.636
 03  6  9 22 16 30.0000000  0  7G25G23G18G31G15G14G11
  21769717.005    -3249702.90749  -2517474.52647  21769716.719    21769721.650
  22287955.991     -421372.84349   -331821.76046  22287955.320    22287959.909
  24247936.138      349298.07649    263540.11645  24247935.583    24247940.886
  24164399.700      265965.05149    197222.13445  24164399.164    24164410.458
  23630466.586     1159549.75049    891209.80145  23630465.788    23630474.071
  20801036.692     -388818.05549   -307590.41848  20801036.102    20801038.623
  22468389.014    -3126056.05349  -2419281.24846  22468388.608    22468392.734
 03  6  9 22 17  0.0000000  0  7G25G23G18G31G15G14G11
  21755275.121    -3325595.25349  -2576611.33947  21755274.827    21755279.804
  22296440.701     -376785.54049   -297078.44446  22296440.046    22296444.649
  24262876.582      427810.06649    324718.18445  24262875.961    24262881.345
  24178574.971      340455.18749    255266.14545  24178574.460    24178585.670
  23652038.488     1272909.92449    979542.19345  23652037.655    23652045.930
  20810083.830     -341275.10749   -270543.98548  20810083.219    20810085.791
  22455194.330    -3195394.53849  -2473311.18946  22455193.913    22455198.095
 03  6  9 22 17 30.0000000  0  7G25G23G18G31G15G14G11
  21740902.928    -3401121.28349  -2635462.71647  21740902.656    21740907.662
  22304958.085     -332026.49049   -262201.30946  22304957.439    22304962.045
  24277839.316      506439.05349    385987.39745  24277838.702    24277844.102
  24192780.975      415106.70349    313435.90945  24192780.456    24192791.636
  23673641.254     1386432.25049   1068000.91345  23673640.400    23673648.701
  20819185.427     -293445.89449   -233274.49547  20819184.828    20819187.420
  22442074.199    -3264341.20849  -2527035.83646  22442073.786    22442077.956
 03  6  9 22 18  0.0000000  0  7G25G23G18G31G15G14G11
  21726600.877    -3476278.79149  -2694026.93147  21726600.598    21726605.613
  22313508.409     -287094.56249   -227189.46446  22313507.750    22313512.368
  24292824.377      585185.40249    447348.07845  24292823.718    24292829.166
  24207017.131      489917.12249    371729.49745  24207016.700    24207027.883
  23695274.504     1500114.91549   1156584.56245  23695273.733    23695282.003
  20828341.330     -245331.50349   -195782.78647  20828340.710    20828343.335
  22429029.136    -3332893.42349  -2580453.11846  22429028.727    22429032.887
 03  6  9 22 18 30.0000000  0  7G25G23G18G31G15G14G11
  21712369.530    -3551064.89549  -2752301.74847  21712369.240    21712374.227
  22322091.681     -241989.29049   -192042.54246  22322091.028    22322095.664
  24307831.704      664048.98149    508800.11545  24307831.109    24307836.584
  24221282.957      564883.50949    430144.60645  24221282.465    24221293.803
  23716937.873     1613955.76649   1245291.48145  23716937.086    23716945.493
  20837551.114     -196933.91649   -158070.41047  20837550.504    20837553.129
  22416059.585    -3401048.91749  -2633561.27346  22416059.155    22416063.314
 03  6  9 22 19  0.0000000  0  7G25G23G18G31G15G14G11
  21698209.403    -3625476.70849  -2810284.90347  21698209.092    21698214.071
  22330708.227     -196709.37449   -156759.52946  22330707.553    22330712.176
  24322861.490      743030.69949    570344.18945  24322860.934    24322866.311
  24235578.072      640003.63749    488679.52645  24235577.479    24235589.008
  23738630.968     1727953.10949   1334120.32845  23738630.228    23738638.751
  20846814.597     -148254.07149   -120138.09447  20846813.981    20846816.639
  22403166.099    -3468804.63249  -2686357.89946  22403165.661    22403169.806
 03  6  9 22 19 30.0000000  0  7G25G23G18G31G15G14G11
  21684120.828    -3699512.37449  -2867974.96247  21684120.526    21684125.482
  22339357.978     -151254.92449   -121340.52946  22339357.294    22339361.915
  24337913.596      822129.81649    631979.74445  24337913.083    24337918.472
  24249901.709      715273.85349    547331.37745  24249901.212    24249912.691
  23760353.358     1842104.12449   1423068.90645  23760352.530    23760361.280
  20856131.319      -99294.49949    -81987.80547  20856130.701    20856133.379
  22390348.988    -3536158.81949  -2738841.65046  22390348.574    22390352.714
 03  6  9 22 20  0.0000000  0  7G25G23G18G31G15G14G11
  21670104.141    -3773170.30549  -2925370.68547  21670103.859    21670108.778
  22348040.969     -105625.65749    -85785.30746  22348040.274    22348044.904
  24352988.001      901345.43449    693706.07145  24352987.387    24352992.830
  24264253.317      790690.85249    606097.61845  24264252.787    24264264.360
  23782104.543     1956406.27649   1512135.24345  23782103.642    23782112.504
  20865500.877      -50057.38249    -43621.24847  20865500.255    20865502.940
  22377608.668    -3603109.63849  -2791011.09646  22377608.244    22377612.397
 03  6  9 22 20 30.0000000  0  7G25G23G18G31G15G14G11
  21656159.906    -3846447.54749  -2982469.77347  21656159.593    21656164.504
  22356757.363      -59820.92849    -50093.36846  22356756.679    22356761.315
  24368084.625      980678.23749    755523.70545  24368084.076    24368089.600
  24278632.343      866251.87249    664976.05545  24278631.763    24278643.488
  23803884.039     2070857.43849   1601317.68945  23803883.145    23803892.055
  20874922.938        -544.23849     -5039.60447  20874922.332    20874925.022
  22364945.484    -3669654.97849  -2842864.57246  22364945.071    22364949.226
 03  6  9 22 21  0.0000000  0  7G25G23G18G31G15G14G11
  21642288.533    -3919341.89049  -3039270.49747  21642288.236    21642293.117
  22365507.255      -13840.10849    -14264.21546  22365506.562    22365511.203
  24383203.605     1060128.22949    817432.65445  24383203.069    24383208.471
  24293038.171      941954.13949    723964.56045  24293037.580    24293049.453
  23825691.469     2185455.49749   1690614.58245  23825690.597    23825699.658
  20884397.244       49243.43349     33755.94547  20884396.633    20884399.345
  22352359.931    -3735792.52549  -2894400.31246  22352359.504    22352363.639
 03  6  9 22 21 30.0000000  0  7G25G23G18G31G15G14G11
  21628490.394    -3991851.53649  -3095771.45647  21628490.078    21628494.958
  22374290.724       32317.04549     21702.33946  22374290.031    22374294.696
  24398344.756     1139694.88849    879432.52645  24398344.187    24398349.665
  24307470.281     1017794.34949    783060.55545  24307469.678    24307481.610
  23847526.397     2300197.76749   1780023.84745  23847525.561    23847534.711
  20893923.369       99303.45649     72763.71547  20893922.758    20893925.496
  22339852.328    -3801520.31749  -2945616.75446  22339851.932    22339856.053
 03  6  9 22 22  0.0000000  0  7G25G23G18G31G15G14G11
  21614765.868    -4063974.13649  -3151970.82147  21614765.559    21614770.423
  22383107.875       78651.21449     57806.83146  22383107.207    22383111.873
  24413508.118     1219378.34949    941523.41845  24413507.690    24413513.149
  24321928.042     1093769.56549    842261.74945  24321927.510    24321939.483
  23869388.380     2415082.10249   1869543.80045  23869387.506    23869396.716
  20903501.005      149634.15349    111982.40547  20903500.398    20903503.145
  22327423.243    -3866835.69249  -2996511.83446  22327422.857    22327426.959
 03  6  9 22 22 30.0000000  0  7G25G23G18G31G15G14G11
  21601115.407    -4135707.45649  -3207866.86047  21601115.099    21601119.949
  22391958.761      125162.54149     94049.35046  22391958.089    22391962.772
  24428693.598     1299177.95949   1003704.79445  24428693.087    24428698.544
  24336410.917     1169876.59049    901565.62245  24336410.303    24336422.505
  23891276.900     2530105.63549   1959172.19745  23891276.003    23891285.330
  20913129.765      200233.55849    151410.47747  20913129.172    20913131.917
  22315072.894    -3931737.23049  -3047084.44546  22315072.507    22315076.590
 03  6  9 22 23  0.0000000  0  7G25G23G18G31G15G14G11
  21587539.479    -4207049.30049  -3263457.85647  21587539.168    21587544.004
  22400843.502      171851.95149    130430.63446  22400842.839    22400847.551
  24443901.218     1379094.08149   1065976.93645  24443900.680    24443906.329
  24350918.413     1246112.64849    960970.02045  24350917.681    24350930.055
  23913191.555     2645266.73049   2048907.77245  23913190.792    23913200.062
  20922809.406      251100.14549    191046.72847  20922808.811    20922811.576
  22302801.800    -3996222.38149  -3097332.61346  22302801.402    22302805.474
 03  6  9 22 23 30.0000000  0  7G25G23G18G31G15G14G11
  21574038.374    -4277997.83849  -3318742.35847  21574038.064    21574042.882
  22409762.167      218719.75049    166950.93846  22409761.525    22409766.250
  24459130.920     1459126.35849   1128339.63745  24459130.495    24459136.036
  24365449.900     1322474.90749   1020472.83345  24365449.110    24365461.587
  23935131.941     2760562.95049   2138748.68445  23935131.203    23935140.509
  20932539.504      302231.99049    230889.68547  20932538.885    20932541.669
  22290610.334    -4060288.88449  -3147254.53846  22290609.952    22290614.004
 03  6  9 22 24  0.0000000  0  7G25G23G18G31G15G14G11
  21560612.620    -4348550.49249  -3373718.38447  21560612.289    21560617.098
  22418714.880      265766.29149    203610.52746  22418714.227    22418718.967
  24474382.804     1539274.86649   1190792.90845  24474382.427    24474387.973
  24380004.661     1398960.16949   1080071.45845  24380003.934    24380016.419
  23957097.610     2875991.70949   2228692.86245  23957096.816    23957106.161
  20942319.795      353627.43749    270938.04447  20942319.174    20942321.961
  22278498.898    -4123934.93149  -3196848.83946  22278498.506    22278502.571
 03  6  9 22 24 30.0000000  0  7G25G23G18G31G15G14G11
  21547262.584    -4418705.05849  -3428384.21147  21547262.271    21547267.035
  22427701.764      312992.32149    240409.96946  22427701.125    22427705.852
  24489656.687     1619539.38849   1253336.57545  24489656.254    24489661.780
  24394582.392     1475565.50449   1139763.65045  24394581.633    24394594.089
  23979088.057     2991550.78349   2318738.58545  23979087.293    23979096.662
  20952149.838      405284.48049    311190.24247  20952149.219    20952152.003
  22266467.853    -4187158.28949  -3246113.75946  22266467.446    22266471.527
 03  6  9 22 25  0.0000000  0  7G25G23G18G31G15G14G11
  21533988.651    -4488459.69149  -3482738.41047  21533988.350    21533993.109
  22436722.800      360397.96949    277349.36346  22436722.160    22436726.903
  24504952.554     1699919.53549   1315970.32745  24504951.954    24504957.795
  24409182.332     1552287.70449   1199546.89845  24409181.615    24409194.103
  24001102.847     3107237.64349   2408883.86945  24001102.022    24001111.485
  20962029.319      457201.24249    351644.81347  20962028.709    20962031.490
  22254517.593    -4249957.09849  -3295047.88446  22254517.198    22254521.298
 03  6  9 22 25 30.0000000  0  7G25G23G18G31G15G14G11
  21520791.272    -4557812.13649  -3536779.21147  21520790.966    21520795.726
  22445778.183      407983.97849    314429.29946  22445777.522    22445782.289
  24520270.531     1780415.31749   1378694.17445  24520269.891    24520275.904
  24423804.079     1629123.96849   1259419.02345  24423803.372    24423815.805
  24023141.455     3223050.17749   2499127.08445  24023140.636    24023150.222
  20971957.900      509376.19249    392300.57447  20971957.286    20971960.075
  22242648.595    -4312328.98149  -3343649.33046  22242648.195    22242652.321
 03  6  9 22 26  0.0000000  0  7G25G23G18G31G15G14G11
  21507670.819    -4626760.41249  -3590505.07947  21507670.510    21507675.256
  22454867.945      455750.77849    351650.11446  22454867.289    22454872.105
  24535610.392     1861026.40849   1441507.86145  24535609.721    24535615.892
  24438446.891     1706071.20249   1319377.62845  24438446.186    24438458.724
  24045203.555     3338986.00449   2589466.35745  24045202.672    24045212.436
  20981935.279      561807.39049    433156.00947  20981934.669    20981937.460
  22230861.214    -4374271.92249  -3391916.54546  22230860.805    22230864.934
 03  6  9 22 26 30.0000000  0  7G25G23G18G31G15G14G11
  21494627.760    -4695302.01949  -3643914.06647  21494627.449    21494632.185
  22463992.241      503698.93149    389012.23646  22463991.602    22463996.406
  24550972.206     1941752.89549   1504411.48245  24550971.686    24550977.775
  24453110.239     1783126.64749   1379420.54545  24453109.534    24453122.303
  24067288.723     3455043.02349   2679900.07345  24067287.853    24067297.596
  20991961.089      614493.26349    474209.89247  20991960.488    20991963.287
  22219155.895    -4435783.87449  -3439847.91846  22219155.519    22219159.649
 03  6  9 22 27  0.0000000  0  7G25G23G18G31G15G14G11
  21481662.399    -4763435.12049  -3697004.73947  21481662.105    21481666.832
  22473151.192      551829.06349    426516.17346  22473150.571    22473155.380
  24566355.994     2022594.84049   1567405.05845  24566355.276    24566361.679
  24467793.571     1860287.36849   1439545.50445  24467792.879    24467805.855
  24089396.471     3571218.59949   2770426.14645  24089395.588    24089405.413
  21002035.020      667431.93949    515460.75747  21002034.414    21002037.228
  22207532.956    -4496862.74449  -3487441.82146  22207532.555    22207536.722
 03  6  9 22 27 30.0000000  0  7G25G23G18G31G15G14G11
  21468775.075    -4831158.38649  -3749776.05747  21468774.767    21468779.502
  22482344.645      600140.81549    464161.61946  22482344.017    22482348.845
  24581761.659     2103551.43849   1630487.96945  24581760.850    24581767.364
  24482496.369     1937549.66149   1499749.60745  24482495.760    24482508.730
  24111526.246     3687510.07149   2861042.52945  24111525.377    24111535.363
  21012156.636      720621.17049    556906.85947  21012156.027    21012158.861
  22195992.705    -4557507.12949  -3534697.17746  22195992.304    22195996.449
 03  6  9 22 28  0.0000000  0  6G25G23G31G15G14G11
  21455966.025    -4898470.00749  -3802226.61247  21455965.724    21455970.454
  22491572.717      648634.30949    501948.68846  22491572.078    22491576.914
  24497217.847     2014910.27149   1560030.30445  24497217.239    24497230.169
  24133677.481     3803914.51449   2951746.94345  24133676.703    24133686.729
  21022325.544      774058.87949    598546.59147  21022324.937    21022327.777
  22184535.536    -4617715.10449  -3581612.46646  22184535.136    22184539.247
 03  6  9 22 28 30.0000000  0  6G25G23G31G15G14G11
  21443234.915    -4965372.30049  -3854358.21547  21443234.608    21443239.362
  22500834.669      697305.81749    539874.46546  22500834.016    22500838.837
  24511956.590     2092361.82749   1620381.89045  24511955.896    24511968.955
  24155849.040     3920425.58249   3042534.44445  24155848.284    24155858.405
  21032540.536      827738.79649    640375.04747  21032539.916    21032542.778
  22173160.961    -4677489.11849  -3628189.60546  22173160.560    22173164.599
 03  6  9 22 29  0.0000000  0  6G25G23G31G15G14G11
  21430583.566    -5031855.27349  -3906163.07047  21430583.266    21430588.000
  22510132.040      746163.42549    577945.26246  22510131.400    22510136.217
  24526713.554     2169909.22749   1680808.14145  24526712.890    24526726.164
  24178041.980     4037048.74649   3133409.28045  24178041.230    24178051.415
  21042802.748      881666.87949    682396.88747  21042802.141    21042805.004
  22161870.754    -4736819.49249  -3674421.05446  22161870.346    22161874.355
 03  6  9 22 29 30.0000000  0  6G25G23G31G15G14G11
  21418012.144    -5097918.40449  -3957640.78447  21418011.849    21418016.576
  22519464.626      795206.20149    616160.33346  22519463.979    22519468.830
  24541487.984     2247548.04249   1741305.64045  24541487.271    24541500.529
  24200255.423     4153780.01149   3224368.35245  24200254.671    24200265.042
  21053111.641      935840.11849    724609.75747  21053111.024    21053113.887
  22150665.064    -4795705.65749  -3720306.36547  22150664.694    22150668.686
 03  6  9 22 30  0.0000000  0  6G25G23G31G15G14G11
  21405520.885    -5163560.22849  -4008790.20347  21405520.577    21405525.290
  22528832.480      844434.31849    654519.82946  22528831.805    22528836.706
  24556279.111     2325274.85849   1801871.69145  24556278.432    24556291.841
  24222488.944     4270616.66749   3315409.52945  24222488.180    24222498.596
  21063466.750      990256.51949    767012.10847  21063466.136    21063469.023
  22139544.256    -4854145.89049  -3765844.19547  22139543.873    22139547.869
 03  6  9 22 30 30.0000000  0  6G25G23G31G15G14G11
  21393110.131    -5228778.87049  -4059609.86947  21393109.838    21393114.547
  22538235.603      893847.78249    693023.75446  22538234.935    22538239.854
  24571086.395     2403086.32949   1862503.71645  24571085.551    24571099.009
  24244742.045     4387555.92149   3406530.66945  24244741.244    24244751.746
  21073867.709     1044913.65849    809602.04347  21073867.095    21073870.026
  22128508.561    -4912138.80049  -3811033.45947  22128508.193    22128512.208
 03  6  9 22 31  0.0000000  0  6G25G23G31G15G14G11
  21380780.298    -5293572.51949  -4110098.37747  21380779.994    21380784.718
  22547674.039      943446.85549    731672.30846  22547673.400    22547678.354
  24585909.054     2480979.33249   1923199.28945  24585908.259    24585921.819
  24267014.093     4504595.29149   3497729.80745  24267013.285    24267024.052
  21084314.123     1099809.69849    852378.14047  21084313.513    21084316.478
  22117558.340    -4969682.45049  -3855872.65847  22117557.963    22117561.992
 03  6  9 22 31 30.0000000  0  6G25G23G31G15G14G11
  21368531.654    -5357939.34949  -4160254.30347  21368531.364    21368536.097
  22557147.913      993232.04849    770465.89246  22557147.252    22557152.264
  24600746.784     2558950.91549   1983956.08445  24600746.048    24600759.562
  24289304.870     4621732.67249   3589005.30845  24289304.134    24289314.905
  21094805.622     1154942.77849    895338.94347  21094805.000    21094808.018
  22106693.952    -5026775.20549  -3900360.50147  22106693.564    22106697.654
 03  6  9 22 32  0.0000000  0  6G25G23G31G15G14G11
  21356364.448    -5421878.23249  -4210076.76447  21356364.147    21356368.887
  22566657.262     1043203.63049    809404.71546  22566656.598    22566661.669
  24615598.876     2636997.93749   2044771.65945  24615598.126    24615611.734
  24311613.663     4738965.24749   3680354.97945  24311612.900    24311623.764
  21105341.885     1210311.07449    938483.02947  21105341.266    21105344.314
  22095915.705    -5083415.21549  -3944495.57347  22095915.336    22095919.441
 03  6  9 22 32 30.0000000  0  6G25G23G31G15G14G11
  21344279.061    -5485387.23249  -4259564.25747  21344278.763    21344283.483
  22576202.033     1093361.53349    848488.71546  22576201.371    22576206.501
  24630464.690     2715116.93749   2105643.33045  24630463.914    24630477.688
  24333940.118     4856289.98949   3771776.46045  24333939.334    24333950.370
  21115922.457     1265912.35049    981808.65347  21115921.861    21115924.966
  22085223.944    -5139600.66449  -3988276.42347  22085223.548    22085227.692
 03  6  9 22 33  0.0000000  0  6G25G23G31G15G14G11
  21332275.914    -5548464.12249  -4308715.03647  21332275.623    21332280.344
  22585782.373     1143706.22649    887718.26946  22585781.699    22585786.914
  24645343.679     2793305.18449   2166568.96045  24645342.814    24645356.714
  24356283.765     4973705.09449   3863268.35245  24356282.965    24356294.089
  21126547.132     1321745.27949   1025314.78547  21126546.546    21126549.682
  22074619.075    -5195329.54949  -4031701.52247  22074618.690    22074622.864
 03  6  9 22 33 30.0000000  0  6G25G23G31G15G14G11
  21320355.309    -5611107.13149  -4357527.72947  21320355.035    21320359.721
  22595398.323     1194238.24549    927093.78346  22595397.642    22595402.922
  24660235.254     2871559.78149   2227546.28545  24660234.554    24660248.420
  24378644.182     5091208.09949   3954828.75145  24378643.316    24378654.618
  21137215.541     1377807.91349   1068999.91647  21137214.940    21137218.102
  22064101.420    -5250600.14249  -4074769.50947  22064101.061    22064105.250
 03  6  9 22 34  0.0000000  0  6G25G23G31G15G14G11
  21308517.638    -5673314.40649  -4406000.88947  21308517.360    21308522.048
  22605050.072     1244958.15049    966615.70946  22605049.400    22605054.738
  24675138.893     2949877.77549   2288573.01745  24675138.157    24675152.055
  24401020.898     5208796.91949   4046455.99545  24401019.855    24401031.494
  21147927.351     1434098.60449   1112862.74547  21147926.755    21147929.901
  22053671.354    -5305410.45149  -4117478.83547  22053670.971    22053675.171
 03  6  9 22 34 30.0000000  0  6G25G23G31G15G14G11
  21296763.225    -5735084.00049  -4454132.99947  21296762.948    21296767.621
  22614737.610     1295866.17949   1006284.23246  22614736.944    22614742.281
  24690054.087     3028256.11549   2349646.76945  24690053.341    24690067.247
  24423413.455     5326468.97049   4138148.09445  24423412.433    24423424.121
  21158682.187     1490615.41949   1156901.77447  21158681.590    21158684.760
  22043329.240    -5359758.75449  -4159828.15247  22043328.831    22043333.036
 03  6  9 22 35  0.0000000  0  6G25G23G31G15G14G11
  21285092.472    -5796414.07949  -4501922.63147  21285092.187    21285096.839
  22624461.014     1346962.80649   1046099.69846  22624460.372    22624465.702
  24704980.155     3106691.93349   2410765.31745  24704979.537    24704993.473
  24445821.381     5444221.79049   4229903.13445  24445820.470    24445832.080
  21169479.769     1547356.80549   1201115.79847  21169479.164    21169482.337
  22033075.366    -5413643.35349  -4201816.15147  22033074.950    22033079.155
 03  6  9 22 35 30.0000000  0  6G25G23G31G15G14G11
  21273505.784    -5857302.44549  -4549368.07247  21273505.499    21273510.106
  22634220.491     1398248.90849   1086062.81746  22634219.826    22634225.155
  24719916.710     3185182.59449   2471926.59245  24719916.157    24719930.012
  24468244.286     5562053.51449   4321719.65645  24468243.397    24468255.109
  21180319.800     1604321.32149   1245503.68547  21180319.160    21180322.337
  22022910.161    -5467061.87149  -4243440.96047  22022909.737    22022913.931
 03  6  9 22 36  0.0000000  0  6G25G23G31G15G14G11
  21262003.452    -5917747.62749  -4596468.17247  21262003.152    21262007.710
  22644016.068     1449724.53249   1126173.60546  22644015.404    22644020.734
  24734863.079     3263724.80449   2533128.02145  24734862.451    24734876.421
  24490681.751     5679961.40049   4413595.51645  24490680.823    24490692.704
  21191201.945     1661507.09849   1290063.98147  21191201.316    21191204.456
  22012833.955    -5520012.72749  -4284701.35947  22012833.533    22012837.701
 03  6  9 22 36 30.0000000  0  6G25G23G31G15G14G11
  21250585.750    -5977747.98349  -4643221.66447  21250585.446    21250589.977
  22653847.762     1501390.04949   1166432.36246  22653847.097    22653852.442
  24749818.658     3342315.95949   2594367.60445  24749818.127    24749832.094
  24513133.340     5797943.50249   4505529.20445  24513132.401    24513144.232
  21202125.824     1718912.35249   1334795.29747  21202125.194    21202128.311
  22002847.035    -5572494.15249  -4325595.97247  22002846.636    22002850.768
 03  6  9 22 37  0.0000000  0  6G25G23G31G15G14G11
  21239253.017    -6037301.76349  -4689627.16947  21239252.701    21239257.206
  22663715.664     1553245.92449   1206839.45746  22663714.996    22663720.346
  24764783.043     3420953.06949   2655642.99045  24764782.377    24764796.377
  24535598.542     5915997.27249   4597518.71945  24535597.599    24535609.313
  21213091.170     1776535.44649   1379696.36147  21213090.533    21213093.650
  21992949.851    -5624504.34149  -4366123.38647  21992949.418    21992953.535
 03  6  9 22 37 30.0000000  0  6G25G23G31G15G14G11
  21228005.612    -6096407.14449  -4735683.27147  21228005.298    21228009.771
  22673619.842     1605292.31649   1247395.01346  22673619.180    22673624.501
  24779755.588     3499632.64949   2716951.45345  24779754.952    24779768.837
  24558076.950     6034120.07049   4689562.04145  24558075.927    24558087.902
  21224097.570     1834374.27949   1424765.53347  21224096.953    21224100.053
  21983142.579    -5676041.84349  -4406282.47447  21983142.147    21983146.233
 03  6  9 22 38  0.0000000  0  6G25G23G31G15G14G11
  21216843.906    -6155062.04249  -4781388.34947  21216843.585    21216848.053
  22683560.434     1657530.07049   1288099.68146  22683559.778    22683565.129
  24794735.635     3578352.32349   2778291.16645  24794735.052    24794749.034
  24580568.005     6152309.81049   4781657.50345  24580567.037    24580578.991
  21235144.790     1892427.68949   1470001.90847  21235144.185    21235147.306
  21973425.730    -5727104.23349  -4446071.34247  21973425.304    21973429.362
 03  6  9 22 38 30.0000000  0  6G25G23G31G15G14G11
  21205768.195    -6213265.24149  -4826741.45447  21205767.882    21205772.335
  22693537.437     1709959.23149   1328953.49846  22693536.781    22693542.165
  24809722.780     3657108.94649   2839659.66845  24809722.177    24809736.291
  24603071.372     6270563.88849   4873803.11945  24603070.437    24603082.440
  21246232.515     1950693.90049   1515404.10747  21246231.910    21246235.034
  21963799.517    -5777690.37949  -4485489.11047  21963799.108    21963803.136
 03  6  9 22 39  0.0000000  0  6G25G23G31G15G14G11
  21194778.764    -6271014.97349  -4871741.21347  21194778.460    21194782.876
  22703550.956     1762580.42049   1369956.94546  22703550.309    22703555.698
  24824716.487     3735899.80449   2901054.86245  24824715.596    24824729.950
  24625586.466     6388880.06049   4965997.07345  24625585.641    24625597.622
  21257360.443     2009171.16549   1560970.75647  21257359.816    21257362.947
  21954264.338    -5827798.06349  -4524534.05547  21954263.909    21954267.958
 03  6  9 22 39 30.0000000  0  6G25G23G31G15G14G11
  21183876.031    -6328309.17349  -4916386.01347  21183875.718    21183880.141
  22713601.133     1815394.06449   1411110.35846  22713600.471    22713605.871
  24839716.081     3814722.11549   2962474.53345  24839715.263    24839729.464
  24648113.053     6507256.28249   5058237.83845  24648112.156    24648124.405
  21268528.163     2067857.86749   1606700.59947  21268527.525    21268530.679
  21944820.455    -5877425.83749  -4563205.04847  21944820.017    21944824.081
 03  6  9 22 40  0.0000000  0  6G25G23G31G15G14G11
  21173060.266    -6385146.14349  -4960674.53147  21173059.966    21173064.380
  22723687.990     1868400.39649   1452413.90946  22723687.319    22723692.743
  24854720.947     3893572.67649   3023916.23145  24854720.155    24854734.631
  24670650.601     6625689.87249   5150523.29645  24670649.654    24670661.910
  21279735.434     2126752.18649   1652592.22847  21279734.796    21279737.979
  21935468.297    -5926571.74049  -4601500.55847  21935467.872    21935471.956
 03  6  9 22 40 30.0000000  0  4G25G23G14G11
  21162338.002    -6441491.95849  -5004580.32947  21162337.708    21162342.118
  22733817.782     1921632.45249   1493893.35346  22733817.116    22733822.539
  21290988.100     2185885.15849   1698669.81747  21290987.466    21290990.660
  21926214.303    -5975201.78649  -4639394.10247  21926213.908    21926217.965
 03  6  9 22 41  0.0000000  0  4G25G23G14G11
  21151702.333    -6497382.72049  -5048131.53747  21151702.031    21151706.435
  22743983.363     1975052.57549   1535519.35446  22743982.718    22743988.146
  21302278.646     2245217.01249   1744902.38147  21302278.000    21302281.198
  21917051.626    -6023352.11549  -4676913.84047  21917051.221    21917055.260
 03  6  9 22 41 30.0000000  0  4G25G23G14G11
  21141152.272    -6552823.54349  -5091332.14747  21141151.965    21141156.357
  22754183.494     2028654.34649   1577286.89046  22754182.827    22754188.282
  21313605.384     2304739.18649   1791283.25447  21313604.748    21313607.950
  21907979.269    -6071027.89649  -4714063.79547  21907978.842    21907982.912
 03  6  9 22 42  0.0000000  0  4G25G23G14G11
  21130689.181    -6607807.29449  -5134176.59147  21130688.879    21130693.264
  22764419.415     2082444.05749   1619200.87946  22764418.760    22764424.206
  21324969.175     2364456.14849   1837815.91147  21324968.551    21324971.769
  21898998.491    -6118222.06649  -4750838.47647  21898998.059    21899002.136
 03  6  9 22 42 30.0000000  0  4G25G23G14G11
  21120313.957    -6662329.33549  -5176661.26647  21120313.661    21120318.039
  22774691.727     2136425.21949   1661264.04746  22774691.080    22774696.507
  21336370.293     2424369.31049   1884501.45047  21336369.668    21336372.898
  21890110.331    -6164929.58549  -4787233.94847  21890109.902    21890113.988
 03  6  9 22 43  0.0000000  0  4G25G23G14G11
  21110027.153    -6716386.78449  -5218783.92347  21110026.853    21110031.230
  22785000.778     2190599.29849   1703477.54046  22785000.142    22785005.571
  21347808.680     2484478.17749   1931339.48647  21347808.060    21347811.294
  21881315.396    -6211147.38649  -4823247.82247  21881314.951    21881319.067
 03  6  9 22 43 30.0000000  0  4G25G23G14G11
  21099829.294    -6769976.87549  -5260542.40347  21099828.992    21099833.347
  22795346.826     2244967.69949   1745842.44846  22795346.210    22795351.642
  21359284.113     2544781.99849   1978329.43547  21359283.506    21359286.747
  21872614.134    -6256872.94549  -4858878.12847  21872613.685    21872617.821
 03  6  9 22 44  0.0000000  0  4G25G23G14G11
  21089720.671    -6823097.85049  -5301935.33647  21089720.360    21089724.693
  22805729.942     2299531.05049   1788359.27046  22805729.332    22805734.784
  21370796.449     2605279.49049   2025470.29947  21370795.856    21370799.090
  21864006.862    -6302104.42649  -4894123.44147  21864006.413    21864010.540
 03  6  9 22 44 30.0000000  0  4G25G23G14G11
  21079701.657    -6875748.10949  -5342961.47647  21079701.346    21079705.666
  22816150.323     2354290.19449   1831028.67146  22816149.718    22816155.227
  21382345.382     2665969.40849   2072761.10547  21382344.761    21382348.046
  21855493.971    -6346840.01449  -4928982.34047  21855493.537    21855497.666
 03  6  9 22 45  0.0000000  0  4G25G23G14G11
  21069772.601    -6927925.58549  -5383619.21647  21069772.290    21069776.592
  22826607.991     2409245.56449   1873850.96046  22826607.428    22826612.951
  21393930.698     2726850.46249   2120200.84947  21393930.090    21393933.376
  21847075.745    -6391077.95449  -4963453.46747  21847075.324    21847079.462
 03  6  9 22 45 30.0000000  0  4G25G23G14G11
  21059933.813    -6979628.69049  -5423907.31447  21059933.502    21059937.793
  22837103.181     2464397.76149   1916826.63546  22837102.593    22837108.121
  21405552.141     2787921.32249   2167788.49947  21405551.525    21405554.827
  21838752.604    -6434816.40349  -4997535.38347  21838752.186    21838756.314
 03  6  9 22 46  0.0000000  0  4G25G23G14G11
  21050185.551    -7030855.97649  -5463824.64447  21050185.250    21050189.508
  22847635.872     2519747.02549   1959955.85846  22847635.281    22847640.832
  21417209.309     2849180.09249   2215522.56547  21417208.705    21417212.008
  21830524.774    -6478054.01549  -5031227.03547  21830524.372    21830528.479
 03  6  9 22 46 30.0000000  0  4G25G23G14G11
  21040528.137    -7081605.90449  -5503370.00647  21040527.836    21040532.078
  22858206.103     2575293.77349   2003238.97446  22858205.484    22858211.076
  21428902.032     2910625.53249   2263402.08747  21428901.440    21428904.733
  21822392.557    -6520788.95249  -5064526.99347  21822392.152    21822396.272
 03  6  9 22 47  0.0000000  0  4G25G23G14G11
  21030961.860    -7131877.00349  -5542542.24947  21030961.558    21030965.789
  22868813.996     2631038.27249   2046676.18546  22868813.361    22868818.997
  21440629.931     2972255.76649   2311425.60747  21440629.321    21440632.618
  21814356.301    -6563019.95549  -5097434.27247  21814355.856    21814359.994
 03  6  9 22 47 30.0000000  0  4G25G23G14G11
  21021487.005    -7181667.62249  -5581340.09947  21021486.698    21021490.914
  22879459.662     2686981.51249   2090268.25846  22879459.010    22879464.718
  21452392.785     3034069.93949   2359592.45347  21452392.188    21452395.494
  21806416.327    -6604744.88449  -5129947.20447  21806415.892    21806420.043
 03  6  9 22 48  0.0000000  0  4G25G23G14G11
  21012103.637    -7230977.30049  -5619763.18947  21012103.334    21012107.560
  22890143.084     2743122.84349   2134014.68946  22890142.444    22890148.129
  21464190.145     3096065.31049   2407900.50447  21464189.541    21464192.863
  21798572.717    -6645963.40949  -5162065.53747  21798572.282    21798576.435
 03  6  9 22 48 30.0000000  0  4G25G23G14G11
  21002812.098    -7279804.54149  -5657810.35347  21002811.796    21002816.028
  22900864.202     2799462.54449   2177915.68746  22900863.562    22900869.252
  21476021.737     3158240.59449   2456348.73347  21476021.130    21476024.467
  21790825.792    -6686673.81549  -5193787.93747  21790825.336    21790829.503
 03  6  9 22 49  0.0000000  0  4G25G23G14G11
  20993612.775    -7328147.17649  -5695479.90247  20993612.465    20993616.699
  22911623.297     2856001.78449   2221972.18146  22911622.634    22911628.378
  21487887.428     3220594.89149   2504936.45647  21487886.815    21487890.151
  21783175.885    -6726874.28449  -5225112.98747  21783175.451    21783179.616
 03  6  9 22 49 30.0000000  0  5G25G23G14G20G11
  20984505.740    -7376004.83849  -5732771.55447  20984505.419    20984509.642
  22922420.280     2912739.93049   2266183.65746  22922419.610    22922425.326
  21499786.668     3283125.71949   2553661.73847  21499786.048    21499789.388
  24725157.877    -4081063.89759  -3144212.11045  24725157.070    24725167.916
  21775623.194    -6766564.01849  -5256040.05447  21775622.750    21775626.915
 03  6  9 22 50  0.0000000  0  5G25G23G14G20G11
  20975487.186    -7423397.51049  -5769700.87247  20975486.883    20975491.089
  22933251.091     2969655.93149   2310533.72446  22933250.421    22933256.137
  21511715.183     3345810.21849   2602506.76647  21511714.560    21511717.890
  24707928.423    -4171604.65849  -3214763.17045  24707927.647    24707938.488
  21768163.875    -6805763.02249  -5286584.74147  21768163.464    21768167.599
 03  6  9 22 50 30.0000000  0  5G25G23G14G20G11
  20966563.472    -7470291.84249  -5806241.88047  20966563.160    20966567.364
  22944121.928     3026782.11149   2355047.56446  22944121.265    22944126.937
  21523678.744     3408678.81149   2651495.24847  21523678.127    21523681.461
  24690694.842    -4262167.39949  -3285331.36945  24690694.128    24690704.900
  21760804.294    -6844437.91649  -5316721.03047  21760803.869    21760808.006
 03  6  9 22 51  0.0000000  0  5G25G23G14G20G11
  20957734.003    -7516690.82149  -5842396.89047  20957733.703    20957737.898
  22955031.958     3084114.39149   2399722.01046  22955031.293    22955037.001
  21535676.228     3471725.86549   2700622.79547  21535675.602    21535678.947
  24673456.336    -4352755.42649  -3355919.26545  24673455.612    24673466.392
  21753543.837    -6882591.72749  -5346451.27347  21753543.405    21753547.582
 03  6  9 22 51 30.0000000  0  5G25G23G14G20G11
  20948998.550    -7562595.83249  -5878166.99147  20948998.250    20949002.452
  22965980.772     3141650.58649   2444555.33446  22965980.162    22965985.879
  21547706.819     3534946.94449   2749885.93847  21547706.193    21547709.556
  24656212.710    -4443370.56749  -3426528.28645  24656212.000    24656222.593
  21746382.324    -6920225.80749  -5375776.54247  21746381.913    21746386.073
 03  6  9 22 52  0.0000000  0  5G25G23G14G20G11
  20940357.007    -7608007.24049  -5913552.47047  20940356.703    20940360.919
  22976968.159     3199389.42549   2489546.56446  22976967.497    22976973.274
  21559769.982     3598339.05149   2799282.35947  21559769.352    21559772.737
  24638963.792    -4534013.51649  -3497158.93045  24638963.072    24638973.715
  21739319.671    -6957340.21349  -5404696.86147  21739319.273    21739323.440
 03  6  9 22 52 30.0000000  0  5G25G23G14G20G11
  20931809.451    -7652924.69149  -5948553.04548  20931809.160    20931813.361
  22987993.961     3257330.03249   2534695.01146  22987993.323    22987999.093
  21571865.166     3661899.74249   2848810.13447  21571864.569    21571867.944
  24621709.435    -4624684.86649  -3567811.71845  24621708.766    24621719.448
  21732356.001    -6993934.61949  -5433211.99047  21732355.593    21732359.755
 03  6  9 22 53  0.0000000  0  5G25G23G14G20G11
  20923356.119    -7697347.13849  -5983167.90548  20923355.822    20923360.016
  22999058.213     3315472.92949   2580001.08746  22999057.544    22999063.422
  21583992.148     3725627.38949   2898468.00147  21583991.553    21583994.953
  24604449.873    -4715383.53649  -3638485.79145  24604449.146    24604459.848
  21725491.481    -7030008.02549  -5461321.14747  21725491.065    21725495.218
 03  6  9 22 53 30.0000000  0  5G25G23G14G20G11
  20914997.152    -7741273.64949  -6017396.32348  20914996.849    20915001.044
  23010160.909     3373817.92249   2625464.64146  23010160.247    23010166.166
  21596150.590     3789520.29449   2948254.64147  21596149.976    21596153.421
  24587185.144    -4806108.96249  -3709180.73845  24587184.508    24587195.316
  21718726.283    -7065559.31249  -5489023.45747  21718725.859    21718730.043
 03  6  9 22 54  0.0000000  0  5G25G23G14G20G11
  20906732.811    -7784703.01949  -6051237.35748  20906732.500    20906736.684
  23021302.154     3432365.18049   2671085.80946  23021301.494    23021307.409
  21608340.160     3853576.76849   2998168.73747  21608339.528    21608342.986
  24569915.435    -4896860.44949  -3779895.97045  24569914.702    24569925.412
  21712060.687    -7100587.38549  -5516318.06747  21712060.263    21712064.436
 03  6  9 22 54 30.0000000  0  5G25G23G14G20G11
  20898563.187    -7827634.53549  -6084690.45248  20898562.876    20898567.070
  23032481.893     3491114.77949   2716864.63346  23032481.265    23032487.186
  21620560.552     3917795.31449   3048209.11647  21620559.928    21620563.417
  24552641.023    -4987637.50449  -3850631.13745  24552640.252    24552650.904
  21705494.848    -7135091.18349  -5543204.15647  21705494.429    21705498.624
 03  6  9 22 55  0.0000000  0  5G25G23G14G20G11
  20890488.548    -7870066.89249  -6117754.59548  20890488.236    20890492.425
  23043700.158     3550066.74549   2762801.14846  23043699.569    23043705.450
  21632811.415     3982173.79049   3098374.13147  21632810.797    21632814.318
  24535361.728    -5078439.63449  -3921385.79745  24535360.944    24535371.799
  21699028.928    -7169069.77249  -5569680.99147  21699028.535    21699032.719
 03  6  9 22 55 30.0000000  0  5G25G23G14G20G11
  20882509.096    -7911999.21349  -6150429.09948  20882508.780    20882512.975
  23054956.946     3609221.14649   2808895.40146  23054956.345    23054962.234
  21645092.483     4046711.19449   3148662.98047  21645091.855    21645095.405
  24518078.124    -5169265.79549  -3992159.23245  24518077.299    24518087.992
  21692663.175    -7202522.08849  -5595747.74347  21692662.762    21692666.961
 03  6  9 22 56  0.0000000  0  5G25G23G14G20G11
  20874624.946    -7953430.55349  -6182713.22648  20874624.628    20874628.809
  23066252.349     3668578.43949   2855147.75346  23066251.746    23066257.585
  21657403.493     4111405.75249   3199074.29147  21657402.862    21657406.419
  24500789.921    -5260115.31849  -4062950.82545  24500789.157    24500799.683
  21686397.846    -7235446.82949  -5621403.39847  21686397.429    21686401.640
 03  6  9 22 56 30.0000000  0  5G25G23G14G20G11
  20866836.425    -7994359.45749  -6214605.84648  20866836.110    20866840.258
  23077586.481     3728139.28949   2901558.71046  23077585.859    23077591.703
  21669744.188     4176256.38849   3249607.22247  21669743.559    21669747.094
  24483497.491    -5350986.86949  -4133759.60745  24483496.838    24483507.210
  21680233.134    -7267842.66449  -5646646.91747  21680232.717    21680236.909
 03  6  9 22 57  0.0000000  0  5G25G23G14G20G11
  20859143.643    -8034785.11449  -6246106.32248  20859143.326    20859147.470
  23088959.343     3787903.68349   2948128.27546  23088958.716    23088964.559
  21682114.321     4241261.53849   3300260.54847  21682113.695    21682117.195
  24466200.949    -5441879.61449  -4204584.87945  24466200.323    24466210.654
  21674169.271    -7299708.59749  -5671477.52647  21674168.865    21674173.055
 03  6  9 22 57 30.0000000  0  5G25G23G14G20G11
  20851546.879    -8074706.39549  -6277213.78648  20851546.565    20851550.690
  23100370.973     3847871.81449   2994856.60146  23100370.336    23100376.210
  21694513.607     4306419.93549   3351033.28447  21694512.971    21694516.459
  24448900.503    -5532792.85349  -4275426.13445  24448899.869    24448910.471
  21668206.479    -7331043.24849  -5695894.15247  21668206.093    21668210.267
 03  6  9 22 58  0.0000000  0  5G25G23G14G20G11
  20844046.238    -8114122.37649  -6307927.50148  20844045.937    20844050.054
  23111821.330     3908043.51249   3041743.53946  23111820.660    23111826.600
  21706941.633     4371729.57949   3401923.88547  21706941.007    21706944.491
  24431596.377    -5623726.10249  -4346282.99045  24431595.729    24431606.221
  21662344.923    -7361845.95149  -5719896.27147  21662344.511    21662348.732
 03  6  9 22 58 30.0000000  0  5G25G23G14G20G11
  20836642.001    -8153031.73849  -6338246.45248  20836641.693    20836645.800
  23123310.535     3968419.40349   3088789.60446  23123309.886    23123315.823
  21719398.288     4437189.68849   3452931.72347  21719397.674    21719401.151
  24414288.828    -5714677.79549  -4417154.22045  24414288.061    24414298.487
  21656584.882    -7392115.32949  -5743482.81447  21656584.469    21656588.672
 03  6  9 22 59  0.0000000  0  5G25G23G14G20G11
  20829334.423    -8191433.29449  -6368169.70948  20829334.102    20829338.203
  23134838.729     4029000.29949   3135995.39746  23134838.065    23134844.072
  21731883.420     4502799.29349   3504056.06147  21731882.790    21731886.295
  24396977.627    -5805646.73649  -4488038.85745  24396976.925    24396987.503
  21650926.593    -7421849.89549  -5766652.61647  21650926.186    21650930.407
 03  6  9 22 59 30.0000000  0  5G25G23G14G20G11
  20822123.491    -8229326.85849  -6397697.12448  20822123.174    20822127.247
  23146405.812     4089785.37949   3183360.29946  23146405.127    23146411.151
  21744396.526     4568555.98249   3555295.01247  21744395.898    21744399.436
  24379663.397    -5896632.82749  -4558936.86245  24379662.651    24379673.126
  21645370.102    -7451049.41349  -5789405.49547  21645369.702    21645373.935
 03  6  9 23  0  0.0000000  0  6G30G25G23G14G20G11
  24510651.286    -6479561.08459  -4380870.05345  24510651.249    24510658.138
  20815009.586    -8266710.52349  -6426827.22048  20815009.269    20815013.337
  23158012.000     4150775.92549   3230885.28846  23158011.332    23158017.390
  21756937.545     4634459.34249   3606648.24547  21756936.926    21756940.465
  24362346.277    -5987634.15349  -4629846.74345  24362345.629    24362355.890
  21639915.799    -7479711.99749  -5811739.98747  21639915.408    21639919.655
 03  6  9 23  0 30.0000000  0  6G30G25G23G14G20G11
  24504381.619    -6512509.03649  -4406543.73645  24504381.619    24504388.357
  20807993.176    -8303581.82349  -6455558.06748  20807992.866    20807996.896
  23169657.617     4211973.54749   3278571.65446  23169656.930    23169662.998
  21769506.448     4700509.25749   3658115.68647  21769505.825    21769509.355
  24345026.604    -6078648.48349  -4700766.76045  24345026.059    24345036.234
  21634564.150    -7507835.16049  -5833654.14647  21634563.733    21634567.991
 03  6  9 23  1  0.0000000  0  6G30G25G23G14G20G11
  24498192.722    -6545031.52849  -4431885.88345  24498192.704    24498199.489
  20801073.754    -8339943.67649  -6483891.94548  20801073.437    20801077.455
  23181342.029     4273374.84449   3326416.72446  23181341.351    23181347.420
  21782102.344     4766701.03449   3709693.66947  21782101.745    21782105.253
  24327704.230    -6169678.31549  -4771698.87845  24327703.571    24327713.528
  21629314.662    -7535421.62749  -5855150.10047  21629314.237    21629318.484
 03  6  9 23  1 30.0000000  0  6G30G25G23G14G20G11
  24492085.437    -6577125.51749  -4456894.12745  24492085.233    24492092.162
  20794251.535    -8375794.46349  -6511827.59448  20794251.229    20794255.231
  23193065.321     4334980.90149   3374421.33746  23193064.615    23193070.762
  21794725.092     4833033.92249   3761381.59347  21794724.496    21794728.014
  24310379.056    -6260721.93749  -4842641.73345  24310378.344    24310388.180
  21624167.636    -7562469.44349  -5876226.32947  21624167.211    21624171.476
 03  6  9 23  2  0.0000000  0  6G30G25G23G14G20G11
  24486060.209    -6608788.80349  -4481566.77945  24486059.973    24486066.862
  20787526.891    -8411132.58249  -6539363.76048  20787526.585    20787530.578
  23204827.657     4396792.04049   3422585.77246  23204826.923    23204833.104
  21807374.497     4899506.78649   3813178.60147  21807373.889    21807377.417
  24293051.400    -6351778.10549  -4913594.33245  24293050.712    24293060.730
  21619123.313    -7588977.58549  -5896882.02747  21619122.893    21619127.135
 03  6  9 23  2 30.0000000  0  6G30G25G23G14G20G11
  24480117.192    -6640019.02349  -4505901.99245  24480117.007    24480123.870
  20780899.961    -8445957.29549  -6566499.87048  20780899.653    20780903.648
  23216629.141     4458808.85549   3470910.46046  23216628.422    23216634.621
  21820050.379     4966118.76649   3865084.00447  21820049.774    21820053.302
  24275721.664    -6442845.65649  -4984555.82245  24275720.969    24275730.840
  21614181.946    -7614944.69149  -5917116.14347  21614181.523    21614185.773
 03  6  9 23  3  0.0000000  0  6G30G25G23G14G20G11
  24474257.028    -6670814.17749  -4529898.21845  24474256.985    24474263.695
  20774370.823    -8480267.95049  -6593235.41648  20774370.523    20774374.505
  23228469.768     4521031.34649   3519395.40546  23228469.025    23228475.291
  21832752.423     5032868.14649   3917096.46847  21832751.800    21832755.318
  24258390.015    -6533923.52049  -5055525.35045  24258389.337    24258399.015
  21609343.681    -7640370.06049  -5936928.11947  21609343.273    21609347.500
 03  6  9 23  3 30.0000000  0  6G30G25G23G14G20G11
  24468480.110    -6701172.24249  -4553553.85145  24468479.994    24468486.696
  20767939.753    -8514063.32049  -6619569.43448  20767939.445    20767943.435
  23240349.591     4583459.74549   3568040.81646  23240348.831    23240355.119
  21845480.371     5099753.71049   3969215.05247  21845479.719    21845483.262
  24241056.446    -6625010.82249  -5126502.23145  24241055.677    24241065.444
  21604608.666    -7665252.83549  -5956317.30247  21604608.271    21604612.494
 03  6  9 23  4  0.0000000  0  6G30G25G23G14G20G11
  24462786.602    -6731090.92049  -4576867.09145  24462786.695    24462793.324
  20761606.874    -8547342.71849  -6645501.40048  20761606.569    20761610.549
  23252268.596     4646094.32749   3616846.88946  23252267.860    23252274.188
  21858234.002     5166774.42649   4021438.96047  21858233.350    21858236.924
  24223721.358    -6716106.45349  -5197485.60445  24223720.468    24223730.370
  21599977.066    -7689592.08349  -5975282.94947  21599976.667    21599980.865
 03  6  9 23  4 30.0000000  0  6G30G25G23G14G20G11
  24457177.317    -6760567.99449  -4599836.23745  24457177.339    24457184.034
  20755372.345    -8580105.16249  -6671030.54448  20755372.035    20755376.022
  23264226.970     4708935.69449   3665814.08746  23264226.261    23264232.548
  21871013.184     5233929.30749   4073767.39847  21871012.533    21871016.111
  24206384.862    -6807208.95349  -5268474.33345  24206384.110    24206393.768
  21595449.174    -7713386.24749  -5993823.86147  21595448.782    21595453.002
 03  6  9 23  5  0.0000000  0  6G30G25G23G14G20G11
  24451652.429    -6789601.73649  -4622459.92445  24451652.503    24451659.080
  20749236.240    -8612350.45049  -6696156.71248  20749235.933    20749239.927
  23276224.647     4771983.54949   3714942.18746  23276223.965    23276230.283
  21883817.504     5301216.34849   4126198.82047  21883816.849    21883820.453
  24189047.365    -6898317.65649  -5339467.89845  24189046.532    24189056.056
  21591025.004    -7736635.44049  -6011940.12547  21591024.615    21591028.835
 03  6  9 23  5 30.0000000  0  6G30G25G23G14G20G11
  24446211.675    -6818190.83349  -4644737.11345  24446212.110    24446218.623
  20743198.716    -8644077.83349  -6720879.31648  20743198.413    20743202.410
  23288261.514     4835237.37449   3764230.78546  23288260.832    23288267.190
  21896646.599     5368633.57549   4178731.67847  21896645.947    21896649.552
  24171708.635    -6989432.27249  -5410466.03345  24171707.805    24171717.225
  21586704.608    -7759339.37349  -6029631.50647  21586704.206    21586708.422
 03  6  9 23  6  0.0000000  0  6G30G25G23G14G20G11
  24440856.844    -6846332.23249  -4666665.49645  24440857.047    24440863.392
  20737259.973    -8675285.98749  -6745197.33048  20737259.674    20737263.647
  23300337.791     4898698.34049   3813680.78046  23300337.132    23300343.527
  21909500.511     5436181.15949   4231366.10647  21909499.869    21909503.487
  24154369.138    -7080550.80549  -5481467.25645  24154368.310    24154377.796
  21582488.334    -7781496.09949  -6046896.50647  21582487.925    21582492.130
 03  6  9 23  6 30.0000000  0  6G30G25G23G14G20G11
  24435587.040    -6874024.81349  -4688244.12345  24435587.186    24435593.744
  20731419.976    -8705975.34149  -6769111.08748  20731419.687    20731423.634
  23312453.361     4962365.65149   3863291.56146  23312452.725    23312459.113
  21922378.782     5503856.77549   4284100.32047  21922378.143    21922381.775
  24137029.033    -7171672.85649  -5552471.22645  24137028.214    24137037.717
  21578376.182    -7803105.56749  -6063735.06047  21578375.771    21578379.948
 03  6  9 23  7  0.0000000  0  6G30G25G23G14G20G11
  24430403.229    -6901266.46849  -4709471.36445  24430403.164    24430409.837
  20725678.947    -8736144.50849  -6792619.50048  20725678.661    20725682.592
  23324608.277     5026239.79349   3913063.51546  23324607.600    23324614.034
  21935281.215     5571659.43749   4336933.52947  21935280.581    21935284.228
  24119688.429    -7262797.05949  -5623476.88145  24119687.578    24119696.874
  21574368.315    -7824166.95549  -6080146.54147  21574367.916    21574372.111
 03  6  9 23  7 30.0000000  0  6G30G25G23G14G20G11
  24425305.483    -6928055.12249  -4730345.64545  24425305.453    24425312.053
  20720037.042    -8765792.76949  -6815722.00848  20720036.737    20720040.685
  23336802.652     5090321.14049   3962996.94746  23336801.988    23336808.392
  21948207.620     5639587.97149   4389864.81547  21948206.992    21948210.644
  24102347.786    -7353922.22649  -5694483.27445  24102347.072    24102356.194
  21570464.920    -7844679.54749  -6096130.38547  21570464.538    21570468.722
 03  6  9 23  8  0.0000000  0  6G30G25G23G14G20G11
  24420294.192    -6954388.93849  -4750865.48945  24420294.402    24420300.824
  20714494.407    -8794919.46749  -6838418.10348  20714494.104    20714498.034
  23349036.386     5154609.66849   4013091.80445  23349035.699    23349042.216
  21961157.682     5707640.94649   4442893.06247  21961157.057    21961160.695
  24085007.057    -7445047.52049  -5765489.76945  24085006.337    24085015.468
  21566666.085    -7864642.69849  -6111686.09247  21566665.688    21566669.892
 03  6  9 23  8 30.0000000  0  6G30G25G23G14G20G11
  24415369.938    -6980266.12649  -4771029.52545  24415369.991    24415376.629
  20709051.096    -8823524.16849  -6860707.45348  20709050.793    20709054.712
  23361309.607     5219105.67249   4063348.34445  23361308.982    23361315.456
  21974131.245     5775817.30749   4496017.46247  21974130.626    21974134.288
  24067666.405    -7536171.92349  -5836495.56045  24067665.623    24067674.807
  21562971.974    -7884055.50149  -6126812.96747  21562971.565    21562975.764
 03  6  9 23  9  0.0000000  0  6G30G25G23G14G20G11
  24410533.028    -7005684.47849  -4790836.05545  24410532.999    24410539.706
  20703707.228    -8851606.33149  -6882589.63048  20703706.922    20703710.844
  23373622.367     5283809.18349   4113766.57845  23373621.748    23373628.263
  21987128.024     5844115.74449   4549236.98747  21987127.408    21987131.074
  24050326.344    -7627293.88149  -5907499.46645  24050325.556    24050334.646
  21559382.701    -7902917.24349  -6141510.43847  21559382.290    21559386.502
 03  6  9 23  9 30.0000000  0  6G30G25G23G14G20G11
  24405783.650    -7030642.90849  -4810284.18645  24405783.578    24405790.324
  20698462.766    -8879166.04749  -6904064.70148  20698462.473    20698466.376
  23385974.516     5348719.67049   4164346.08045  23385973.877    23385980.381
  22000147.708     5912534.42249   4602550.20947  22000147.075    22000150.748
  24032986.785    -7718413.05749  -5978501.20845  24032986.050    24032995.078
  21555898.265    -7921228.09149  -6155778.64447  21555897.852    21555902.068
 03  6  9 23 10  0.0000000  0  6G30G25G23G14G20G11
  24401121.916    -7055139.35249  -4829372.29645  24401121.854    24401128.768
  20693317.839    -8906202.63349  -6925132.13748  20693317.534    20693321.441
  23398366.113     5413837.54449   4215087.18845  23398365.509    23398372.062
  22013190.074     5981072.48849   4655956.45247  22013189.446    22013193.160
  24015648.060    -7809527.90749  -6049499.58645  24015647.354    24015656.290
  21552518.888    -7938986.81749  -6169616.62247  21552518.482    21552522.694
 03  6  9 23 10 30.0000000  0  6G30G25G23G14G20G11
  24396548.790    -7079171.55649  -4848098.68545  24396548.670    24396555.560
  20688272.651    -8932715.12949  -6945791.19748  20688272.337    20688276.260
  23410797.286     5479163.26049   4265990.24245  23410796.622    23410803.214
  22026255.010     6049729.14249   4709455.10747  22026254.381    22026258.121
  23998310.365    -7900637.14249  -6120493.58045  23998309.587    23998318.500
  21549244.651    -7956193.03849  -6183024.08047  21549244.239    21549248.455
 03  6  9 23 11  0.0000000  0  6G30G25G23G14G20G11
  24392064.315    -7102738.47249  -4866462.48345  24392064.105    24392070.815
  20683327.239    -8958703.37049  -6966041.74448  20683326.931    20683330.846
  23423267.826     5544696.19649   4317054.77145  23423267.169    23423273.789
  22039342.136     6118502.32849   4763044.56147  22039341.511    22039345.247
  23980973.798    -7991740.39449  -6191482.93245  23980972.988    23980981.853
  21546075.576    -7972846.64749  -6196000.93447  21546075.182    21546079.401
 03  6  9 23 11 30.0000000  0  6G30G25G23G14G20G11
  24387668.489    -7125837.86649  -4884462.01245  24387668.419    24387675.163
  20678481.730    -8984166.62049  -6985883.20948  20678481.415    20678485.318
  23435777.941     5610436.93949   4368281.21645  23435777.279    23435783.999
  22052451.302     6187391.28949   4816724.23247  22052450.686    22052454.416
  23963638.805    -8082835.83849  -6262466.19645  23963638.078    23963646.883
  21543011.910    -7988946.47549  -6208546.27247  21543011.503    21543015.746
 03  6  9 23 12  0.0000000  0  6G30G25G23G14G20G11
  24383362.081    -7148467.96249  -4902095.85745  24383362.019    24383368.931
  20673736.160    -9009104.62449  -7005315.39048  20673735.851    20673739.750
  23448327.627     5676385.49149   4419669.58745  23448326.970    23448333.672
  22065582.280     6256394.97649   4870493.30447  22065581.636    22065585.409
  23946305.481    -8173922.41649  -6333442.55445  23946304.729    23946313.495
  21540053.642    -8004492.18849  -6220659.83447  21540053.261    21540057.492
 03  6  9 23 12 30.0000000  0  6G30G25G23G14G20G11
  24379145.595    -7170626.58449  -4919362.31345  24379145.318    24379152.065
  20669090.763    -9033516.17749  -7024337.35548  20669090.457    20669094.371
  23460916.886     5742542.38749   4471220.30345  23460916.226    23460922.999
  22078734.995     6325512.60549   4924351.14447  22078734.350    22078738.122
  23928974.169    -8264998.29749  -6404410.60445  23928973.417    23928982.128
  21537201.041    -8019482.77749  -6232340.83147  21537200.656    21537204.896
 03  6  9 23 13  0.0000000  0  6G30G25G23G14G20G11
  24375018.641    -7192313.78049  -4936261.41045  24375018.506    24375025.246
  20664545.311    -9057402.59249  -7042950.12048  20664545.003    20664548.941
  23473545.503     5808905.91249   4522932.02145  23473544.863    23473551.734
  22091908.809     6394741.21849   4978295.48947  22091908.160    22091911.959
  23911644.703    -8356063.99249  -6475370.70445  23911644.073    23911652.740
  21534453.839    -8033919.60049  -6243590.32447  21534453.448    21534457.712
 03  6  9 23 13 30.0000000  0  6G30G25G23G14G20G11
  24370981.807    -7213526.58849  -4952790.82345  24370981.611    24370988.545
  20660100.045    -9080762.53849  -7061152.64748  20660099.741    20660103.670
  23486213.736     5875477.35549   4574805.74145  23486213.073    23486219.995
  22105103.723     6464080.80649   5032326.29847  22105103.095    22105106.899
  23894317.588    -8447117.51349  -6546321.29445  23894316.860    23894325.631
  21531812.338    -8047800.86149  -6254406.90447  21531811.937    21531816.214
 03  6  9 23 14  0.0000000  0  6G30G25G23G14G20G11
  24367035.659    -7234263.26049  -4968949.23745  24367035.562    24367042.551
  20655755.104    -9103595.25549  -7078944.34848  20655754.809    20655758.742
  23498921.523     5942256.84249   4626841.59145  23498920.855    23498927.835
  22118319.540     6533530.34749   5086442.77447  22118318.907    22118322.739
  23876993.177    -8538157.38049  -6617261.26445  23876992.372    23877001.077
  21529276.597    -8061126.27649  -6264790.36047  21529276.192    21529280.487
 03  6  9 23 14 30.0000000  0  6G30G25G23G14G20G11
  24363180.331    -7254522.37749  -4984735.53545  24363180.321    24363187.224
  20651510.454    -9125900.94949  -7096325.37748  20651510.147    20651514.085
  23511668.858     6009244.21349   4679039.41245  23511668.201    23511675.223
  22131556.006     6603088.28749   5140643.72347  22131555.383    22131559.236
  23859671.557    -8629182.80249  -6688189.98745  23859670.784    23859679.377
  21526846.730    -8073895.53549  -6274740.44147  21526846.324    21526850.622
 03  6  9 23 15  0.0000000  0  6G30G25G23G14G20G11
  24359416.604    -7274302.63249  -5000148.70845  24359416.257    24359423.119
  20647366.139    -9147679.36649  -7113295.54648  20647365.836    20647369.757
  23524455.716     6076439.13149   4731398.95245  23524455.069    23524462.059
  22144812.898     6672753.41849   5194928.19547  22144812.266    22144816.137
  23842352.868    -8720192.63549  -6759106.54845  23842352.053    23842360.528
  21524522.717    -8086108.34449  -6284256.93347  21524522.283    21524526.582
 03  6  9 23 15 30.0000000  0  6G30G25G23G14G20G11
  24355744.047    -7293602.45649  -5015187.51945  24355743.569    24355750.487
  20643322.221    -9168930.23349  -7129854.63848  20643321.916    20643325.818
  23537282.054     6143841.53649   4783920.16745  23537281.429    23537288.398
  22158089.914     6742524.56449   5249295.27347  22158089.304    22158093.172
  23825037.311    -8811185.74749  -6830010.07545  23825036.521    23825044.953
  21522304.614    -8097764.70749  -6293339.82747  21522304.189    21522308.458
 03  6  9 23 16  0.0000000  0  6G30G25G23G14G20G11
  24352163.024    -7312419.64449  -5029850.25845  24352162.908    24352169.779
  20639378.868    -9189652.58449  -7146001.89648  20639378.556    20639382.454
  23550148.058     6211452.17649   4836603.64245  23550147.432    23550154.358
  22171387.043     6812401.19249   5303744.55247  22171386.438    22171390.302
  23807725.195    -8902160.48149  -6900899.28845  23807724.486    23807732.878
  21520192.560    -8108863.67249  -6301988.38747  21520192.131    21520196.415
 03  6  9 23 16 30.0000000  0  6G30G25G23G14G20G11
  24348674.246    -7330752.88849  -5044135.88445  24348674.103    24348680.948
  20635536.083    -9209846.36049  -7161737.28548  20635535.776    20635539.662
  23563053.711     6279270.90349   4889449.25645  23563053.057    23563059.942
  22184703.907     6882381.62149   5358274.70647  22184703.310    22184707.164
  23790416.887    -8993115.51249  -6971773.17245  23790416.106    23790424.535
  21518186.621    -8119404.95549  -6310202.39347  21518186.200    21518190.474
 03  6  9 23 17  0.0000000  0  6G30G25G23G14G20G11
  24345277.769    -7348601.07649  -5058043.51345  24345277.775    24345284.574
  20631793.790    -9229512.18349  -7177061.28048  20631793.477    20631797.346
  23575998.778     6347297.15149   4942456.59645  23575998.146    23576005.046
  22198040.241     6952464.53949   5412884.71647  22198039.677    22198043.540
  23773112.467    -9084050.17049  -7042631.18745  23773111.757    23773120.112
  21516286.775    -8129388.86649  -6317982.08247  21516286.355    21516290.633
 03  6  9 23 17 30.0000000  0  6G30G25G23G14G20G11
  24341974.232    -7365962.12149  -5071571.60645  24341974.271    24341980.882
  20628152.122    -9248649.17049  -7191973.19948  20628151.808    20628155.659
  23588983.463     6415531.51549   4995626.09345  23588982.806    23588989.631
  22211395.996     7022649.25849   5467574.05646  22211395.411    22211399.292
  23755812.236    -9174962.73649  -7113471.93645  23755811.446    23755819.803
  21514493.094    -8138814.66649  -6325326.87847  21514492.677    21514496.964
 03  6  9 23 18  0.0000000  0  6G30G25G23G14G20G11
  24338763.508    -7382835.53749  -5084719.72545  24338763.266    24338769.997
  20624610.976    -9267257.84149  -7206473.44348  20624610.669    20624614.508
  23602007.505     6483972.91449   5048956.92945  23602006.881    23602013.795
  22224770.786     7092934.02449   5522341.36446  22224770.182    22224774.105
  23738516.258    -9265852.83949  -7184295.21545  23738515.418    23738523.787
  21512805.529    -8147682.95949  -6332237.24647  21512805.115    21512809.396
 03  6  9 23 18 30.0000000  0  6G30G25G23G14G20G11
  24335645.720    -7399218.54349  -5097485.71445  24335645.613    24335652.410
  20621170.625    -9285336.98749  -7220561.07048  20621170.321    20621174.141
  23615071.182     6552622.52249   5102449.99945  23615070.547    23615077.407
  22238164.569     7163318.69449   5577186.51046  22238163.979    22238167.912
  23721224.964    -9356718.02549  -7255099.09345  23721224.219    23721232.482
  21511224.317    -8155992.50049  -6338712.23347  21511223.900    21511228.172
 03  6  9 23 19  0.0000000  0  6G30G25G23G14G20G11
  24332621.664    -7415110.34649  -5109868.93945  24332621.456    24332628.215
  20617830.938    -9302887.10149  -7234236.46448  20617830.633    20617834.441
  23628174.400     6621479.80349   5156104.89445  23628173.785    23628180.701
  22251577.031     7233801.55649   5632108.18246  22251576.434    22251580.374
  23703938.736    -9447557.43849  -7325882.88445  23703937.946    23703946.072
  21509749.382    -8163743.36449  -6344751.87947  21509748.941    21509753.233
 03  6  9 23 19 30.0000000  0  6G30G25G23G14G20G11
  24329691.370    -7430509.74349  -5121868.43345  24329691.075    24329697.808
  20614591.866    -9319908.49549  -7247499.87248  20614591.565    20614595.362
  23641316.990     6690544.10049   5209921.09345  23641316.437    23641323.424
  22265007.952     7304381.27349   5687105.32146  22265007.326    22265011.273
  23686657.430    -9538370.54349  -7396646.14745  23686656.609    23686664.690
  21508380.657    -8170936.07849  -6350356.60447  21508380.218    21508384.504
 03  6  9 23 20  0.0000000  0  6G30G25G23G14G20G11
  24326854.743    -7445414.85849  -5133482.79945  24326854.749    24326861.474
  20611453.587    -9336400.21549  -7260350.54748  20611453.288    20611457.081
  23654499.105     6759816.18949   5263899.21745  23654498.512    23654505.608
  22278457.188     7375057.32349   5742177.52446  22278456.565    22278460.491
  23669381.578    -9629155.12249  -7467387.21945  23669380.848    23669388.858
  21507118.300    -8177569.75249  -6355525.70847  21507117.882    21507122.139
 03  6  9 23 20 30.0000000  0  6G30G25G23G14G20G11
  24324112.734    -7459823.84549  -5144710.55545  24324112.838    24324119.601
  20608416.175    -9352361.92849  -7272788.22748  20608415.871    20608419.639
  23667720.769     6829296.24749   5318039.39345  23667720.148    23667727.326
  22291924.576     7445828.80349   5797324.08846  22291923.952    22291927.911
  23652111.449    -9719909.65249  -7538104.85345  23652110.585    23652118.687
  21505962.423    -8183644.01949  -6360258.91547  21505961.992    21505966.264
 03  6  9 23 21  0.0000000  0  6G30G25G23G14G20G11
  24321465.274    -7473736.70649  -5155551.76245  24321465.250    24321472.019
  20605479.326    -9367795.15949  -7284814.10348  20605479.014    20605482.770
  23680981.811     6898982.93449   5372340.58645  23680981.177    23680988.474
  22305409.775     7516693.65949   5852543.41646  22305409.156    22305413.096
  23634847.097    -9810634.06749  -7608799.04745  23634846.326    23634854.231
  21504912.736    -8189160.16149  -6364557.22247  21504912.329    21504916.568
 03  6  9 23 21 30.0000000  0  6G30G25G23G14G20G11
  24318912.699    -7487150.80949  -5166004.32145  24318912.677    24318919.411
  20602643.300    -9382698.41349  -7296427.01148  20602642.987    20602646.735
  23694282.383     6968877.40249   5426803.67545  23694281.820    23694289.018
  22318912.731     7587651.93549   5907835.53546  22318912.118    22318916.048
  23617588.880    -9901325.95949  -7679467.88445  23617588.104    23617595.933
  21503969.436    -8194116.96749  -6368419.68547  21503969.062    21503973.318
 03  6  9 23 22  0.0000000  0  6G30G25G23G14G20G11
  24316455.183    -7500065.95449  -5176068.09045  24316455.118    24316461.704
  20599907.950    -9397072.68449  -7307627.72848  20599907.641    20599911.387
  23707622.303     7038978.61949   5481427.87145  23707621.735    23707628.992
  22332433.027     7658701.40549   5963198.70746  22332432.419    22332436.338
  23600336.919    -9991984.83449  -7750110.99545  23600336.157    23600343.957
  21503132.494    -8198515.34749  -6371847.01347  21503132.101    21503136.360
 03  6  9 23 22 30.0000000  0  6G30G25G23G14G20G11
  24314092.801    -7512480.42349  -5185741.69645  24314092.724    24314099.350
  20597273.377    -9410917.55849  -7318415.91748  20597273.075    20597276.806
  23721001.623     7109286.79849   5536213.33045  23721001.072    23721008.313
  22345970.591     7729841.53149   6018632.53346  22345969.977    22345973.904
  23583091.553   -10082608.92049  -7820727.01845  23583090.816    23583098.606
  21502401.903    -8202354.62249  -6374838.67047  21502401.517    21502405.755
 03  6  9 23 23  0.0000000  0  6G30G25G23G14G20G11
  24311825.740    -7524392.67949  -5195023.99045  24311825.933    24311832.487
  20594739.509    -9424232.98749  -7328791.56148  20594739.199    20594742.930
  23734420.296     7179801.91649   5591160.04545  23734419.753    23734427.066
  22359525.224     7801071.31249   6074136.21146  22359524.603    22359528.554
  23565853.113   -10173196.94549  -7891314.91545  23565852.411    23565860.129
  21501777.728    -8205634.88249  -6377394.73347  21501777.329    21501781.561
 03  6  9 23 23 30.0000000  0  6G30G25G23G14G20G11
  24309654.616    -7535801.45849  -5203913.97845  24309655.056    24309661.453
  20592306.428    -9437018.89249  -7338754.59048  20592306.133    20592309.840
  23747878.353     7250523.96949   5646267.99145  23747877.797    23747885.212
  22373096.754     7872389.86649   6129709.06646  22373096.138    22373100.076
  23548621.807   -10263747.62349  -7961873.72645  23548621.068    23548628.746
  21501259.916    -8208356.15749  -6379515.22647  21501259.508    21501263.726
 03  6  9 23 24  0.0000000  0  6G30G25G23G14G20G11
  24307579.571    -7546706.02949  -5212411.05545  24307579.923    24307586.302
  20589974.019    -9449275.73349  -7348305.36448  20589973.718    20589977.418
  23761375.706     7321452.51449   5701536.84545  23761375.132    23761382.638
  22386684.921     7943796.02849   6185350.18546  22386684.281    22386688.270
  23531397.789   -10354259.68849  -8032402.45945  23531397.054    23531404.695
  21500848.418    -8210518.72749  -6381200.36647  21500847.993    21500852.214
 03  6  9 23 24 30.0000000  0  6G30G25G23G14G20G11
  24305600.571    -7557104.39749  -5220513.71045  24305601.253    24305607.552
  20587742.330    -9461003.28349  -7357443.70148  20587742.023    20587745.722
  23774912.373     7392587.70549   5756966.73045  23774911.781    23774919.351
  22400289.638     8015289.07949   6241059.00646  22400289.012    22400292.992
  23514181.448   -10444731.12549  -8102899.54245  23514180.890    23514188.436
  21500543.353    -8212122.00449  -6382449.69247  21500542.934    21500547.157
 03  6  9 23 25  0.0000000  0  6G30G25G23G14G20G11
  24303718.216    -7566995.79949  -5228221.32145  24303718.965    24303725.280
  20585611.280    -9472201.97949  -7366169.94648  20585610.988    20585614.697
  23788488.335     7463929.17849   5812557.34945  23788487.672    23788495.374
  22413910.622     8086867.81949   6296834.61146  22413909.993    22413914.006
  23496973.101   -10535161.11849  -8173364.32245  23496972.455    23496980.015
  21500344.522    -8213166.94049  -6383263.94847  21500344.101    21500348.326
 03  6  9 23 25 30.0000000  0  6G30G25G23G14G20G11
  24301932.644    -7576379.38949  -5235533.23045  24301933.242    24301939.687
  20583580.799    -9482872.12449  -7374484.33448  20583580.514    20583584.218
  23802103.427     7535476.60749   5868308.45745  23802102.767    23802110.523
  22427547.671     8158530.76149   6352675.82346  22427547.052    22427551.016
  23479772.947   -10625548.38849  -8243795.79145  23479772.172    23479779.640
  21500251.973    -8213653.49949  -6383643.11547  21500251.555    21500255.776
 03  6  9 23 26  0.0000000  0  6G30G25G23G14G20G11
  24300244.102    -7585253.71649  -5242448.31245  24300244.461    24300250.927
  20581650.936    -9493013.54749  -7382386.72948  20581650.650    20581654.354
  23815757.755     7607230.10549   5924220.13045  23815757.174    23815764.854
  22441200.651     8230277.25349   6408582.12046  22441200.011    22441204.003
  23462581.169   -10715891.45849  -8314192.85345  23462580.404    23462587.767
  21500265.655    -8213581.68549  -6383587.18347  21500265.236    21500269.464
 03  6  9 23 26 30.0000000  0  6G30G25G23G14G20G11
  24298652.481    -7593618.09749  -5248966.04745  24298652.793    24298659.380
  20579821.631    -9502626.56249  -7389877.37748  20579821.326    20579825.035
  23829451.191     7679189.12449   5980291.95045  23829450.584    23829458.302
  22454869.231     8302106.06449   6464552.56946  22454868.588    22454872.566
  23445397.946   -10806189.34049  -8384554.67745  23445397.139    23445404.531
  21500385.481    -8212952.18149  -6383096.69147  21500385.083    21500389.302
 03  6  9 23 27  0.0000000  0  7G30G25G23G 1G14G20G11
  24297155.495    -7601486.52949  -5255097.35745  24297155.569    24297162.033
  20578089.846    -9511727.08249  -7396968.68248  20578089.545    20578093.261
  23843180.846     7751338.28449   6036511.92745  23843180.260    23843187.876
  24631702.705    -4927188.43259  -3600770.29145  24631702.079    24631718.325
  22468550.435     8374000.85849   6520574.43946  22468549.766    22468553.748
  23428220.794   -10896455.67149  -8454891.92745  23428219.971    23428227.219
  21500608.497    -8211780.28249  -6382183.55247  21500608.089    21500612.347
 03  6  9 23 27 30.0000000  0  7G30G25G23G 1G14G20G11
  24295756.492    -7608839.40249  -5260826.89745  24295756.437    24295762.807
  20576459.122    -9520296.64449  -7403646.24648  20576458.824    20576462.536
  23856950.244     7823696.09049   6092894.49745  23856949.557    23856957.310
  24616776.841    -5005622.89649  -3661887.72445  24616776.131    24616792.269
  22482247.518     8445979.48249   6576661.62546  22482246.874    22482250.904
  23411053.408   -10986670.39149  -8525189.00345  23411052.645    23411059.789
  21500938.237    -8210047.48649  -6380833.35447  21500937.840    21500942.106
 03  6  9 23 28  0.0000000  0  7G30G25G23G 1G14G20G11
  24294455.917    -7615672.98049  -5266151.79545  24294455.868    24294462.458
  20574929.889    -9528332.80549  -7409908.18148  20574929.583    20574933.302
  23870759.742     7896264.86549   6149441.45345  23870759.107    23870766.779
  24601875.604    -5083928.47249  -3722904.73745  24601874.827    24601890.803
  22495960.858     8518043.45049   6632815.31346  22495960.241    22495964.296
  23393896.589   -11076829.33449  -8595442.54545  23393895.813    23393903.004
  21501375.143    -8207751.83549  -6379044.56847  21501374.718    21501378.998
 03  6  9 23 28 30.0000000  0  7G30G25G23G 1G14G20G11
  24293253.962    -7621988.47349  -5271073.00645  24293254.120    24293260.723
  20573501.664    -9535838.12149  -7415756.46448  20573501.371    20573505.086
  23884608.969     7969042.10949   6206150.85545  23884608.339    23884615.899
  24586998.396    -5162107.28249  -3783822.97345  24586997.916    24587013.664
  22509689.836     8590189.65249   6689033.07746  22509689.246    22509693.304
  23376750.183   -11166933.49349  -8665653.44746  23376749.444    23376756.641
  21501918.682    -8204895.59549  -6376818.96547  21501918.252    21501922.530
 03  6  9 23 29  0.0000000  0  7G30G25G23G 1G14G20G11
  24292150.581    -7627786.67349  -5275591.10945  24292150.714    24292157.333
  20572174.116    -9542814.26349  -7421192.40248  20572173.830    20572177.533
  23898497.373     8042025.78149   6263021.10745  23898496.695    23898504.336
  24572145.144    -5240160.82049  -3844643.58945  24572144.539    24572160.156
  22523433.925     8662415.12249   6745312.61146  22523433.302    22523437.391
  23359614.156   -11256983.20349  -8735821.89346  23359613.397    23359620.618
  21502568.508    -8201480.86149  -6374158.16247  21502568.072    21502572.370
 03  6  9 23 29 30.0000000  0  7G30G25G23G 1G14G20G11
  24291145.969    -7633067.26349  -5279705.86745  24291145.819    24291152.776
  20570947.042    -9549262.53349  -7426217.00448  20570946.750    20570950.459
  23912424.948     8115214.99149   6320051.52345  23912424.173    23912431.812
  24557315.565    -5318089.70649  -3905367.08045  24557314.985    24557330.442
  22537192.828     8734718.32849   6801652.71946  22537192.217    22537196.290
  23342488.668   -11346977.70649  -8805947.32246  23342487.863    23342495.122
  21503324.443    -8197508.51049  -6371062.85547  21503324.028    21503328.301
 03  6  9 23 30  0.0000000  0  7G30G25G23G 1G14G20G11
  24290239.975    -7637830.04349  -5283417.17145  24290239.697    24290246.467
  20569820.295    -9555183.59149  -7430830.79648  20569820.000    20569823.717
  23926391.465     8188608.95049   6377241.47745  23926390.774    23926398.380
  24542509.551    -5395894.55949  -3965993.94945  24542508.815    24542524.418
  22550966.152     8807097.61749   6858052.10446  22550965.542    22550969.620
  23325373.778   -11436916.17749  -8876029.12646  23325373.081    23325380.209
  21504186.287    -8192979.62849  -6367533.89147  21504185.892    21504190.140
 03  6  9 23 30 30.0000000  0  7G30G25G23G 1G14G20G11
  24289432.298    -7642073.41649  -5286723.73045  24289432.266    24289438.919
  20568793.816    -9560577.65349  -7435033.94648  20568793.521    20568797.238
  23940397.020     8262208.00649   6434591.25345  23940396.348    23940403.959
  24527727.173    -5473574.66949  -4026523.60845  24527726.509    24527742.168
  22564753.995     8879552.92049   6914510.72046  22564753.406    22564757.479
  23308269.907   -11526796.47749  -8946065.53046  23308269.231    23308276.371
  21505154.088    -8187894.02249  -6363571.11547  21505153.682    21505157.930
 03  6  9 23 31  0.0000000  0  7G30G25G23G 1G14G20G11
  24288723.589    -7645797.06349  -5289625.30945  24288723.597    24288730.521
  20567867.512    -9565445.34349  -7438826.92748  20567867.222    20567870.910
  23954441.423     8336011.34949   6492100.22245  23954440.736    23954448.467
  24512968.530    -5551130.31249  -4086956.26945  24512967.966    24512983.522
  22578555.947     8952082.60249   6971027.30646  22578555.341    22578559.493
  23291177.422   -11616617.72649  -9016055.97446  23291176.714    23291183.803
  21506227.568    -8182252.86049  -6359175.43447  21506227.149    21506231.420
 03  6  9 23 31 30.0000000  0  7G30G25G23G 1G14G20G11
  24288114.113    -7649000.30649  -5292121.36445  24288114.078    24288120.972
  20567041.177    -9569787.65449  -7442210.51848  20567040.874    20567044.563
  23968524.630     8410018.37549   6549767.90445  23968523.946    23968531.703
  24498233.658    -5628561.97049  -4147292.33745  24498233.136    24498248.464
  22592371.882     9024685.48349   7027600.93046  22592371.237    22592375.451
  23274096.344   -11706378.80349  -9085999.49446  23274095.600    23274102.713
  21507406.701    -8176056.70849  -6354347.29347  21507406.253    21507410.563
 03  6  9 23 32  0.0000000  0  7G30G25G23G 1G14G20G11
  24287603.976    -7651681.95849  -5294210.97145  24287603.881    24287610.629
  20566314.851    -9573604.59449  -7445184.73048  20566314.537    20566318.219
  23982646.573     8484229.10249   6607594.29045  23982645.880    23982653.706
  24483522.356    -5705868.99249  -4207531.30745  24483521.761    24483537.361
  22606201.617     9097360.97149   7084231.12546  22606200.983    22606205.191
  23257027.123   -11796077.79449  -9155894.67146  23257026.296    23257033.490
  21508691.390    -8169305.74049  -6349086.82847  21508690.953    21508695.270
 03  6  9 23 32 30.0000000  0  7G30G25G23G 1G14G20G11
  24287192.983    -7653841.83649  -5295894.00845  24287192.766    24287199.589
  20565688.241    -9576897.31849  -7447750.46948  20565687.931    20565691.616
  23996807.125     8558642.79149   6665578.83145  23996806.496    23996814.324
  24468834.708    -5783051.98449  -4267673.63545  24468834.209    24468849.669
  22620044.845     9170107.57349   7140916.73646  22620044.229    22620048.457
  23239969.879   -11885713.74049  -9225740.69446  23239969.024    23239976.166
  21510081.464    -8162000.93149  -6343394.80447  21510081.041    21510085.354
 03  6  9 23 33  0.0000000  0  7G30G25G23G 1G14G20G11
  24286881.535    -7655478.32549  -5297169.21745  24286881.591    24286888.224
  20565161.496    -9579665.30649  -7449907.31848  20565161.185    20565164.858
  24011006.401     8633259.84649   6723721.83745  24011005.787    24011013.590
  24454170.806    -5860109.85349  -4327718.42345  24454170.431    24454185.578
  22633901.670     9242925.32549   7197657.79046  22633901.056    22633905.293
  23222925.028   -11975284.53449  -9295535.95946  23222924.194    23222931.268
  21511576.968    -8154142.20849  -6337271.15647  21511576.526    21511580.879
 03  6  9 23 33 30.0000000  0  7G30G25G23G 1G14G20G11
  24286669.751    -7656591.39149  -5298036.55345  24286669.868    24286676.459
  20564734.379    -9581909.72949  -7451656.19648  20564734.081    20564737.743
  24025244.136     8708079.26149   6782022.49945  24025243.500    24025251.534
  24439530.727    -5937043.37549  -4387666.32445  24439530.076    24439545.407
  22647771.665     9315812.50049   7254452.94146  22647771.035    22647775.311
  23205892.737   -12064789.29549  -9365279.75946  23205891.845    23205898.908
  21513177.666    -8145730.47549  -6330716.58947  21513177.227    21513181.615
 03  6  9 23 34  0.0000000  0  7G30G25G23G 1G14G20G11
  24286557.738    -7657180.12549  -5298495.32245  24286557.756    24286564.363
  20564406.769    -9583631.26049  -7452997.62748  20564406.458    20564410.133
  24039520.367     8783100.79849   6840480.66145  24039519.746    24039527.907
  24424914.227    -6013852.30549  -4447517.17745  24424913.495    24424928.921
  22661654.690     9388768.02949   7311301.35446  22661654.073    22661658.355
  23188873.270   -12154226.38749  -9434970.85346  23188872.408    23188879.432
  21514883.467    -8136766.60349  -6323731.78247  21514883.026    21514887.437
 03  6  9 23 34 30.0000000  0  7G30G25G23G 1G14G20G11
  24286545.566    -7657243.09049  -5298544.40245  24286545.774    24286552.328
  20564178.753    -9584829.36749  -7453931.19348  20564178.446    20564182.128
  24053835.157     8858324.80249   6899096.58745  24053834.546    24053842.664
  24410321.562    -6090535.98849  -4507270.42245  24410320.798    24410336.176
  22675550.715     9461792.08749   7368203.16646  22675550.103    22675554.453
  23171867.139   -12243593.59249  -9504607.49046  23171866.331    23171873.263
  21516694.460    -8127249.80849  -6316316.12447  21516694.023    21516698.448
 03  6  9 23 35  0.0000000  0  7G30G25G23G 1G14G20G11
  24286633.761    -7656780.26949  -5298183.76945  24286633.743    24286640.576
  20564050.105    -9585505.28049  -7454457.85848  20564049.825    20564053.489
  24068188.228     8933750.40749   6957869.60445  24068187.690    24068195.788
  24395752.627    -6167094.89949  -4566926.44245  24395751.903    24395767.294
  22689459.496     9534883.07749   7425157.14146  22689458.885    22689463.292
  23154874.531   -12332889.90649  -9574188.90846  23154873.745    23154880.633
  21518610.337    -8117181.99249  -6308471.10147  21518609.896    21518614.352
 03  6  9 23 35 30.0000000  0  7G30G25G23G 1G14G20G11
  24286822.130    -7655790.52749  -5297412.55445  24286822.073    24286828.965
  20564020.757    -9585659.41949  -7454577.94948  20564020.465    20564024.129
  24082579.735     9009377.64649   7016799.74445  24082579.177    24082587.359
  24381207.614    -6243528.61149  -4626484.91945  24381206.952    24381222.215
  22703380.939     9608040.48849   7482162.86946  22703380.327    22703384.724
  23137895.774   -12422113.37249  -9643713.54346  23137894.979    23137901.835
  21520631.053    -8106563.15349  -6300196.70347  21520630.598    21520635.094
 03  6  9 23 36  0.0000000  0  7G30G25G23G 1G14G20G11
  24287110.840    -7654273.88649  -5296230.77445  24287110.733    24287117.629
  20564090.457    -9585293.18749  -7454292.55648  20564090.147    20564093.826
  24097009.530     9085205.69149   7075886.35245  24097008.968    24097017.138
  24366686.239    -6319837.64849  -4685946.23045  24366685.506    24366700.823
  22717314.780     9681262.99849   7539219.31946  22717314.161    22717318.537
  23120931.019   -12511263.24049  -9713180.81446  23120930.174    23120937.053
  21522756.369    -8095394.51449  -6291493.89347  21522755.936    21522760.424
 03  6  9 23 36 30.0000000  0  7G30G25G23G 1G14G20G11
  24287499.949    -7652229.11949  -5294637.44945  24287499.913    24287506.702
  20564259.125    -9584406.60349  -7453601.69248  20564258.830    20564262.491
  24111477.470     9161234.51049   7135129.39545  24111476.892    24111485.075
  24352188.750    -6396021.56049  -4745310.05045  24352188.031    24352203.235
  22731260.901     9754549.99049   7596326.01746  22731260.286    22731264.634
  23103980.615   -12600337.43849  -9782589.16046  23103979.808    23103986.660
  21524986.282    -8083676.37849  -6282362.90547  21524985.852    21524990.371
 03  6  9 23 37  0.0000000  0  7G30G25G23G 1G14G20G11
  24287989.613    -7649655.56949  -5292632.08545  24287989.655    24287996.452
  20564526.827    -9582999.79849  -7452505.46148  20564526.535    20564530.179
  24125983.580     9237463.73149   7194528.61645  24125983.009    24125991.146
  24337715.053    -6472080.17349  -4804576.23545  24337714.292    24337729.418
  22745219.200     9827901.08349   7653482.67246  22745218.563    22745222.927
  23087044.962   -12689334.20349  -9851937.16546  23087044.152    23087050.937
  21527320.617    -8071409.35749  -6272804.21247  21527320.206    21527324.731
 03  6  9 23 37 30.0000000  0  7G30G25G23G 1G14G20G11
  24288579.996    -7646552.66149  -5290214.24945  24288580.286    24288586.936
  20564893.324    -9581073.73149  -7451004.60848  20564893.041    20564896.663
  24140527.695     9313892.98449   7254083.71945  24140527.101    24140535.311
  24323265.286    -6548013.48349  -4863744.78045  24323264.495    24323279.475
  22759189.439     9901315.19249   7710688.41546  22759188.822    22759193.208
  23070124.332   -12778252.10049  -9921223.68846  23070123.526    23070130.254
  21529759.293    -8058594.12349  -6262818.33847  21529758.848    21529763.409
 03  6  9 23 38  0.0000000  0  7G30G25G23G 1G14G20G11
  24289271.236    -7642919.67549  -5287383.35345  24289271.538    24289278.242
  20565358.599    -9578628.71649  -7449099.38048  20565358.309    20565361.930
  24155109.864     9390522.09649   7313794.51145  24155109.166    24155117.570
  24308839.352    -6623821.17649  -4922815.44745  24308838.751    24308853.577
  22773171.538     9974791.51049   7767942.63546  22773170.942    22773175.357
  23053219.006   -12867089.36349  -9990447.38446  23053218.250    23053224.955
  21532302.179    -8045231.25849  -6252405.74147  21532301.758    21532306.302
 03  6  9 23 38 30.0000000  0  7G30G25G23G 1G14G20G11
  24290063.412    -7638756.31649  -5284139.21445  24290063.709    24290070.545
  20565922.413    -9575665.79449  -7446790.58448  20565922.118    20565925.732
  24169730.010     9467350.53249   7373660.62445  24169729.324    24169737.775
  24294437.334    -6699503.41849  -4981788.35745  24294436.662    24294451.397
  22787165.365    10048329.32849   7825244.76046  22787164.734    22787169.184
  23036329.390   -12955844.33549 -10059606.96646  23036328.622    23036335.319
  21534949.087    -8031321.78249  -6241567.21247  21534948.645    21534953.191
 03  6  9 23 39  0.0000000  0  7G30G25G23G 1G14G20G11
  24290956.881    -7634061.85149  -5280481.19545  24290957.120    24290963.892
  20566584.638    -9572185.61149  -7444078.73548  20566584.340    20566587.950
  24184387.968     9544378.00849   7433681.86445  24184387.286    24184395.750
  24280059.182    -6775060.12849  -5040663.45345  24280058.496    24280073.041
  22801170.735    10121927.79549   7882594.17146  22801170.138    22801174.582
  23019455.743   -13044515.39549 -10128701.19046  23019454.983    23019461.664
  21537699.930    -8016866.13149  -6230303.09147  21537699.491    21537704.029
 03  6  9 23 39 30.0000000  0  7G30G25G23G 1G14G20G11
  24291951.537    -7628835.83349  -5276408.97945  24291951.641    24291958.445
  20567345.242    -9568188.55549  -7440964.12648  20567344.943    20567348.563
  24199083.715     9621604.16249   7493857.91145  24199083.103    24199091.610
  24265704.863    -6850491.22449  -5099440.66445  24265704.163    24265718.671
  22815187.472    10195586.06749   7939990.17846  22815186.855    22815191.314
  23002598.364   -13133100.83949 -10197728.67846  23002597.623    23002604.273
  21540554.470    -8001865.46849  -6218614.28747  21540554.055    21540558.606
 03  6  9 23 40  0.0000000  0  7G30G25G23G 1G14G20G11
  24293047.276    -7623077.59549  -5271922.00845  24293047.473    24293054.143
  20568204.018    -9563675.47549  -7437447.42448  20568203.719    20568207.348
  24213817.221     9699028.45749   7554188.35345  24213816.424    24213825.233
  24251374.400    -6925796.66049  -5158119.95945  24251373.854    24251388.156
  22829215.512    10269303.64049   7997432.39846  22829214.893    22829219.318
  22985757.630   -13221599.18249 -10266688.30146  22985756.882    22985763.465
  21543512.617    -7986320.34849  -6206501.22947  21543512.207    21543516.777
 03  6  9 23 40 30.0000000  0  7G30G25G23G 1G14G20G11
  24294244.525    -7616786.82749  -5267020.10145  24294244.676    24294251.315
  20569160.819    -9558647.41449  -7433529.44048  20569160.517    20569164.151
  24228588.378     9776650.58249   7614672.91745  24228587.588    24228596.348
  24237067.907    -7000976.59049  -5216701.45345  24237067.308    24237081.617
  22843254.602    10343079.32249   8054919.90546  22843254.024    22843258.405
  22968933.732   -13310008.83949 -10335578.81846  22968932.989    22968939.522
  21546574.205    -7970231.85349  -6193964.76347  21546573.777    21546578.347
 03  6  9 23 41  0.0000000  0  7G30G25G23G 1G14G20G11
  24295542.853    -7609963.33049  -5261703.11445  24295543.016    24295549.761
  20570215.467    -9553105.19649  -7429210.81348  20570215.176    20570218.778
  24243397.135     9854470.21349   7675311.41845  24243396.336    24243405.165
  24222785.387    -7076030.73249  -5275184.92745  24222784.786    24222799.157
  22857304.644    10416912.47549   8112452.18746  22857304.047    22857308.408
  22952127.056   -13398328.04749 -10404398.84546  22952126.304    22952132.741
  21549739.005    -7953600.69149  -6181005.44447  21549738.596    21549743.164
 03  6  9 23 41 30.0000000  0  7G30G25G23G 1G14G20G11
  24296942.893    -7602606.16849  -5255970.29045  24296942.997    24296949.680
  20571367.840    -9547049.26649  -7424491.89148  20571367.549    20571371.148
  24258243.367     9932487.21249   7736103.71945  24258242.588    24258251.587
  24208526.840    -7150958.92649  -5333570.24145  24208526.237    24208540.401
  22871365.516    10490802.63649   8170028.89446  22871364.904    22871369.258
  22935337.989   -13486554.92849 -10473146.94146  22935337.206    22935343.583
  21553006.990    -7936427.51549  -6167623.77047  21553006.584    21553011.151
 03  6  9 23 42  0.0000000  0  7G30G25G23G 1G14G20G11
  24298444.577    -7594715.35949  -5249821.62345  24298444.557    24298451.302
  20572617.762    -9540480.82549  -7419373.61348  20572617.463    20572621.092
  24273127.042    10010700.58549   7797049.02745  24273126.294    24273135.304
  24194292.200    -7225761.50349  -5391857.66245  24194291.551    24194305.603
  22885436.982    10564748.75549   8227649.20346  22885436.412    22885440.775
  22918566.675   -13574688.14649 -10541822.06046  22918565.847    22918572.248
  21556377.824    -7918713.81149  -6153820.91447  21556377.420    21556381.980
 03  6  9 23 42 30.0000000  0  7G30G25G23G 1G14G20G11
  24300047.750    -7586290.40349  -5243256.73845  24300047.828    24300054.444
  20573965.094    -9533400.48449  -7413856.44848  20573964.791    20573968.430
  24288047.973    10089109.85149   7858146.98545  24288047.205    24288056.256
  24180081.462    -7300438.33349  -5450047.09245  24180080.929    24180094.776
  22899519.024    10638750.19949   8285312.62446  22899518.453    22899522.730
  22901813.548   -13662725.95749 -10610422.81446  22901812.725    22901819.083
  21559851.380    -7900460.28349  -6139597.41347  21559850.956    21559855.530
 03  6  9 23 43  0.0000000  0  7G30G25G23G 1G14G20G11
  24301752.734    -7577330.98749  -5236275.34745  24301752.856    24301759.478
  20575409.664    -9525809.03949  -7407941.02448  20575409.361    20575413.020
  24303006.071    10167714.60749   7919397.25945  24303005.430    24303014.373
  24165894.748    -7374989.20849  -5508138.38845  24165894.110    24165907.854
  22913611.453    10712806.22649   8343018.58746  22913610.887    22913615.168
  22885078.917   -13750666.50149 -10678947.78146  22885078.120    22885084.464
  21563427.459    -7881667.84349  -6124953.97947  21563427.040    21563431.641
 03  6  9 23 43 30.0000000  0  7G30G25G23G 1G14G20G11
  24303559.468    -7567836.39949  -5228876.93445  24303559.506    24303566.424
  20576951.385    -9517707.12349  -7401627.82348  20576951.073    20576954.739
  24318001.373    10246514.82749   7980799.87845  24318000.768    24318009.671
  24151731.921    -7449414.11149  -5566131.51745  24151731.235    24151745.090
  22927714.206    10786916.43649   8400766.77846  22927713.634    22927717.925
  22868363.125   -13838508.05149 -10747395.60946  22868362.323    22868368.670
  21567105.971    -7862337.16449  -6109891.13847  21567105.563    21567110.144
 03  6  9 23 44  0.0000000  0  7G30G25G23G 1G14G20G11
  24305468.023    -7557806.59349  -5221061.48345  24305468.024    24305474.938
  20578590.059    -9509095.83549  -7394917.71548  20578589.749    20578593.417
  24333033.790    10325510.00349   8042354.38645  24333033.151    24333042.061
  24137593.050    -7523713.16249  -5624026.59645  24137592.333    24137606.058
  22941827.078    10861079.82149   8458556.38646  22941826.474    22941830.820
  22851666.528   -13926248.80849 -10815764.91246  22851665.741    22851672.047
  21570886.713    -7842469.43449  -6094409.81947  21570886.306    21570890.890
 03  6  9 23 44 30.0000000  0  7G30G25G23G 1G14G20G11
  24307478.415    -7547241.41149  -5212828.88245  24307478.542    24307485.311
  20580325.527    -9499975.85449  -7387811.21848  20580325.237    20580328.886
  24348103.195    10404699.42449   8104060.24645  24348102.579    24348111.423
  24123478.080    -7597886.35949  -5681823.59845  24123477.534    24123491.115
  22955949.903    10935295.68649   8516386.89446  22955949.267    22955953.668
  22834989.439   -14013887.17949 -10884054.42746  22834988.637    22834994.899
  21574769.394    -7822065.79349  -6078510.91147  21574768.978    21574773.580
 03  6  9 23 45  0.0000000  0  7G30G25G23G 1G14G20G11
  24309590.781    -7536140.41649  -5204178.74345  24309590.921    24309597.842
  20582157.546    -9490348.32849  -7380309.23448  20582157.249    20582160.913
  24363209.547    10484082.88649   8165917.27045  24363208.872    24363217.719
  24109387.109    -7671933.50449  -5739522.37045  24109386.469    24109400.209
  22970082.614    11009563.64849   8574257.99246  22970082.023    22970086.480
  22818332.141   -14101421.29549 -10952262.70746  22818331.328    22818337.568
  21578753.951    -7801126.96449  -6062194.97347  21578753.520    21578758.145
 03  6  9 23 45 30.0000000  0  7G30G25G23G 1G14G20G11
  24311805.336    -7524503.79249  -5195111.24245  24311805.257    24311812.256
  20584086.018    -9480214.25349  -7372412.54348  20584085.704    20584089.347
  24378352.580    10563659.51349   8227924.82745  24378351.887    24378360.869
  24095320.183    -7745854.95549  -5797123.19345  24095319.528    24095333.227
  22984225.024    11083882.39049   8632168.66146  22984224.403    22984228.899
  22801694.966   -14188849.81849 -11020388.71746  22801694.166    22801700.378
  21582840.097    -7779654.25049  -6045463.02047  21582839.691    21582844.295
 03  6  9 23 46  0.0000000  0  7G30G25G23G 1G14G20G11
  24314121.681    -7512330.54549  -5185625.59945  24314121.684    24314128.699
  20586110.800    -9469574.06649  -7364121.47948  20586110.492    20586114.111
  24393532.411    10643429.35949   8290082.96045  24393531.829    24393540.782
  24081277.185    -7819650.09749  -5854625.59445  24081276.580    24081290.205
  22998377.099    11158252.00949   8690118.96446  22998376.505    22998381.019
  22785078.308   -14276170.30949 -11088430.55646  22785077.529    22785083.735
  21587027.642    -7757648.51949  -6028315.73047  21587027.232    21587031.869
 03  6  9 23 46 30.0000000  0  7G30G25G23G 1G14G20G11
  24316540.202    -7499620.91949  -5175721.98545  24316540.320    24316547.365
  20588231.594    -9458429.09149  -7355437.07248  20588231.294    20588234.927
  24408748.744    10723391.46849   8352390.88245  24408748.136    24408757.044
  24067258.168    -7893319.36849  -5912029.91445  24067257.465    24067271.092
  23012538.657    11232671.44249   8748108.09346  23012538.091    23012542.610
  22768482.470   -14363381.57049 -11156387.26646  22768481.668    22768487.885
  21591316.350    -7735111.21749  -6010754.22647  21591315.953    21591320.598
 03  6  9 23 47  0.0000000  0  7G30G25G23G 1G14G20G11
  24319060.837    -7486374.77049  -5165400.30045  24319061.105    24319067.894
  20590448.202    -9446780.63949  -7346360.34648  20590447.900    20590451.540
  24424001.678    10803545.52349   8414848.37545  24424001.095    24424009.987
  24053263.061    -7966862.72949  -5969336.12345  24053262.424    24053276.057
  23026709.604    11307140.09249   8806135.58646  23026709.011    23026713.501
  22751907.809   -14450481.51649 -11224257.23746  22751907.023    22751913.221
  21595706.068    -7712043.16349  -5992779.14847  21595705.684    21595710.332
 03  6  9 23 47 30.0000000  0  7G30G25G23G 1G14G20G11
  24321683.612    -7472592.17049  -5154660.58045  24321683.889    24321690.587
  20592760.498    -9434629.44749  -7336891.87948  20592760.189    20592763.833
  24439291.064    10883890.74049   8477454.81345  24439290.381    24439299.440
  24039291.988    -8040280.30049  -6026544.31845  24039291.295    24039304.802
  23040889.800    11381657.13749   8864200.77946  23040889.204    23040893.661
  22735354.661   -14537468.58449 -11292039.25746  22735353.872    22735360.042
  21600196.497    -7688445.96549  -5974391.75847  21600196.105    21600200.756
 03  6  9 23 48  0.0000000  0  7G30G25G23G 1G14G20G11
  24324408.537    -7458272.75649  -5143502.55945  24324408.792    24324415.476
  20595168.273    -9421976.42749  -7327032.36648  20595167.962    20595171.594
  24454616.718    10964426.77349   8540209.97045  24454616.071    24454625.019
  24025344.797    -8113572.00949  -6083654.44145  24025344.181    24025357.521
  23055078.989    11456221.81449   8922303.09446  23055078.402    23055082.853
  22718823.349   -14624340.76249 -11359731.76146  22718822.576    22718828.697
  21604787.425    -7664320.70949  -5955592.88447  21604787.017    21604791.659
 03  6  9 23 48 30.0000000  0  7G30G25G23G 1G14G20G11
  24327235.567    -7443416.69849  -5131926.39445  24327235.895    24327242.573
  20597671.310    -9408822.84949  -7316782.81148  20597670.999    20597674.620
  24469978.539    11045153.02249   8603113.35045  24469977.836    24469986.990
  24011421.631    -8186737.73249  -6140666.37445  24011421.100    24011434.258
  23069277.222    11530833.74949   8980442.24246  23069276.592    23069281.079
  22702314.183   -14711096.51849 -11427333.53546  22702313.386    22702319.476
  21609478.645    -7639668.45249  -5936383.36047  21609478.229    21609482.865
 03  6  9 23 49  0.0000000  0  7G30G25G23G 1G14G20G11
  24330164.784    -7428023.66549  -5119931.80645  24330165.037    24330171.806
  20600269.392    -9395169.74149  -7306144.01048  20600269.090    20600272.703
  24485376.467    11126068.97549   8666164.50945  24485375.937    24485384.950
  23997522.429    -8259777.52149  -6197580.18845  23997521.862    23997534.975
  23083484.284    11605492.31849   9038617.72746  23083483.667    23083488.186
  22685827.589   -14797733.89449 -11494843.06246  22685826.760    22685832.787
  21614269.973    -7614490.12649  -5916763.91447  21614269.543    21614274.166
 03  6  9 23 49 30.0000000  0  7G30G25G23G 1G14G20G11
  24333196.227    -7412093.43249  -5107518.65245  24333196.368    24333203.159
  20602962.403    -9381017.78049  -7295116.49348  20602962.106    20602965.717
  24500810.439    11207174.40149   8729363.32745  24500809.762    24500819.108
  23983647.189    -8332691.37049  -6254395.85045  23983646.668    23983659.581
  23097700.115    11680196.92649   9096829.07146  23097699.505    23097704.050
  22669363.884   -14884250.78649 -11562258.70946  22669363.047    22669369.088
  21619161.163    -7588786.89049  -5896735.44947  21619160.736    21619165.337
 03  6  9 23 50  0.0000000  0  7G30G25G23G 1G14G20G11
  24336329.896    -7395626.58749  -5094687.33845  24336329.870    24336336.667
  20605750.032    -9366368.60949  -7283701.53948  20605749.736    20605753.349
  24516280.191    11288468.13749   8792708.84345  24516279.532    24516289.079
  23969795.730    -8405479.68149  -6311113.69445  23969795.206    23969808.055
  23111924.518    11754946.54349   9155075.49346  23111923.908    23111928.440
  22652923.313   -14970646.03949 -11629579.57846  22652922.478    22652928.462
  21624151.862    -7562560.72549  -5876299.50347  21624151.451    21624156.056
 03  6  9 23 50 30.0000000  0  7G30G25G23G 1G14G20G11
  24339565.626    -7378622.50249  -5081437.38745  24339565.530    24339572.372
  20608632.184    -9351222.74449  -7271899.55048  20608631.871    20608635.478
  24531785.862    11369950.17049   8856201.14245  24531785.288    24531794.747
  23955968.361    -8478141.94649  -6367733.30045  23955967.819    23955980.554
  23126157.488    11829741.22749   9213357.03146  23126156.865    23126161.445
  22636506.375   -15056917.17549 -11696803.72446  22636505.524    22636511.487
  21629241.998    -7535812.22349  -5855456.54847  21629241.567    21629246.166
 03  6  9 23 51  0.0000000  0  7G30G25G23G 1G14G20G11
  24342903.446    -7361081.57649  -5067769.11045  24342903.489    24342910.334
  20611608.612    -9335581.50449  -7259711.55348  20611608.301    20611611.893
  24547327.198    11451619.60949   8919839.45545  24547326.779    24547336.320
  23942164.853    -8550678.62149  -6424255.05945  23942164.295    23942176.959
  23140398.761    11904579.82849   9271672.79646  23140398.146    23140402.805
  22620113.357   -15143062.71749 -11763930.01446  22620112.522    22620118.427
  21634431.119    -7508543.25449  -5834208.02847  21634430.705    21634435.298
 03  6  9 23 51 30.0000000  0  7G30G25G23G 1G14G20G11
  24346343.560    -7343003.74649  -5053682.47045  24346343.627    24346350.474
  20614679.142    -9319445.72649  -7247138.20848  20614678.825    20614682.430
  24562904.188    11533476.14149   8983623.56045  24562903.595    24562913.221
  23928385.273    -8623089.41649  -6480678.72845  23928384.705    23928397.310
  23154648.449    11979462.23449   9330022.69946  23154647.871    23154652.515
  22603744.579   -15229080.55949 -11830956.77946  22603743.794    22603749.662
  21639719.189    -7480754.45349  -5812554.45547  21639718.784    21639723.382
 03  6  9 23 52  0.0000000  0  7G30G25G23G 1G14G20G11
  24349885.859    -7324388.68349  -5039177.20745  24349886.015    24349892.712
  20617843.491    -9302816.85249  -7234180.63048  20617843.184    20617846.772
  24578516.646    11615519.16749   9047552.97945  24578516.157    24578525.738
  23914629.690    -8695374.08549  -6537004.11645  23914629.157    23914641.753
  23168906.377    12054387.85749   9388406.25346  23168905.761    23168910.403
  22587400.500   -15314968.64649 -11897882.47446  22587399.728    22587405.573
  21645105.915    -7452447.14449  -5790496.84547  21645105.505    21645110.081
 03  6  9 23 52 30.0000000  0  7G30G25G23G 1G14G20G11
  24353530.223    -7305237.32949  -5024254.07345  24353530.362    24353537.133
  20621101.355    -9285696.68249  -7220840.22448  20621101.059    20621104.630
  24594164.343    11697747.47349   9111626.73945  24594163.955    24594173.368
  23900897.976    -8767533.55549  -6593231.95745  23900897.404    23900909.888
  23183172.297    12129355.48649   9446822.55346  23183171.664    23183176.323
  22571081.365   -15400725.80249 -11964706.11146  22571080.587    22571086.413
  21650590.873    -7423623.74749  -5768037.08847  21650590.438    21650595.024
 03  6  9 23 53  0.0000000  0  6G30G25G 1G14G20G11
  24357275.793    -7285554.41049  -5008916.75045  24357275.909    24357282.621
  20624451.636    -9268090.73849  -7207121.30048  20624451.319    20624454.923
  23887189.227    -8839572.31249  -6649365.73145  23887188.674    23887201.063
  23197445.223    12204360.03349   9505267.61346  23197444.563    23197449.234
  22554786.657   -15486354.67549 -12031429.80746  22554785.887    22554791.683
  21656172.956    -7394289.88649  -5745179.57147  21656172.524    21656177.101
 03  6  9 23 53 30.0000000  0  6G30G25G 1G14G20G11
  24361123.946    -7265332.36849  -4993159.31045  24361124.006    24361130.673
  20627895.561    -9249992.70449  -7193018.92548  20627895.255    20627898.857
  23873504.891    -8911482.76949  -6705399.54645  23873504.317    23873516.684
  23211726.507    12279408.28149   9563746.74146  23211725.837    23211730.477
  22538518.118   -15571845.97649 -12098046.28546  22538517.350    22538523.082
  21661853.372    -7364439.27849  -5721919.39247  21661852.931    21661857.519
 03  6  9 23 54  0.0000000  0  6G30G25G 1G14G20G11
  24365074.449    -7244572.45849  -4976982.77345  24365074.510    24365081.242
  20631432.624    -9231405.09649  -7178535.06548  20631432.317    20631435.937
  23859844.721    -8983266.12149  -6761334.31445  23859844.064    23859856.426
  23226015.791    12354498.90949   9622258.89146  23226015.114    23226019.806
  22522275.985   -15657198.64749 -12164554.74946  22522275.213    22522280.897
  21667631.565    -7334074.64649  -5698258.68047  21667631.141    21667635.773
 03  6  9 23 54 30.0000000  0  6G30G25G 1G14G20G11
  24369127.149    -7223275.55549  -4960387.76945  24369127.125    24369133.910
  20635062.618    -9212329.35249  -7163670.83448  20635062.314    20635065.932
  23846208.598    -9054923.06049  -6817170.58145  23846207.954    23846220.251
  23240312.881    12429630.58849   9680803.03046  23240312.216    23240316.911
  22506060.445   -15742411.56749 -12230954.31046  22506059.659    22506065.285
  21673507.191    -7303198.08849  -5674199.05847  21673506.764    21673511.430
 03  6  9 23 55  0.0000000  0  6G30G25G 1G14G20G11
  24373281.755    -7201442.60549  -4943375.09045  24373281.958    24373288.572
  20638785.122    -9192767.41549  -7148427.74848  20638784.807    20638788.448
  23832596.399    -9126454.48649  -6872909.03745  23832595.798    23832607.888
  23254617.576    12504801.99949   9739378.13646  23254616.934    23254621.573
  22489871.747   -15827483.39049 -12297243.93146  22489870.966    22489876.508
  21679479.850    -7271811.65049  -5649742.12947  21679479.439    21679484.106
 03  6  9 23 55 30.0000000  0  7G30G25G16G 1G14G20G11
  24377538.421    -7179073.91349  -4925944.93745  24377538.591    24377545.171
  20642599.812    -9172721.01949  -7132807.16848  20642599.516    20642603.140
  24670060.227    -3172627.35959  -2449331.95645  24670059.604    24670074.237
  23819008.060    -9197860.31349  -6928549.60245  23819007.375    23819019.524
  23268929.730    12580012.62849   9797983.78146  23268929.066    23268933.709
  22473710.219   -15912412.44349 -12363422.29546  22473709.455    22473714.959
  21685549.217    -7239916.96749  -5624889.16647  21685548.827    21685553.493
 03  6  9 23 56  0.0000000  0  7G30G25G16G 1G14G20G11
  24381896.645    -7156171.14049  -4908098.65145  24381896.804    24381903.448
  20646506.212    -9152192.72549  -7116811.07948  20646505.901    20646509.534
  24652586.953    -3264448.41749  -2520880.32445  24652586.331    24652600.795
  23805443.303    -9269142.12949  -6984093.53245  23805442.695    23805454.760
  23283248.960    12655260.51049   9856618.46146  23283248.332    23283252.950
  22457575.941   -15997198.21249 -12429489.00846  22457575.154    22457580.634
  21691714.780    -7207516.88549  -5599642.38247  21691714.379    21691719.053
 03  6  9 23 56 30.0000000  0  7G30G25G16G 1G14G20G11
  24386356.765    -7132732.79449  -4889834.99545  24386356.926    24386363.483
  20650504.473    -9131181.66949  -7100438.81248  20650504.173    20650507.788
  24635102.100    -3356330.28449  -2592476.08345  24635101.435    24635115.838
  23791902.504    -9340297.98349  -7039539.31645  23791901.880    23791913.974
  23297575.532    12730547.05049   9915283.27146  23297574.955    23297579.567
  22441469.631   -16081836.91949 -12495441.13446  22441468.825    22441474.317
  21697976.601    -7174611.02649  -5574001.48847  21697976.194    21697980.876
 03  6  9 23 57  0.0000000  0  7G30G25G16G 1G14G20G11
  24390918.984    -7108758.64849  -4871153.87545  24390919.048    24390925.532
  20654594.385    -9109688.91849  -7083691.19548  20654594.092    20654597.695
  24617606.180    -3448269.72749  -2664116.70845  24617605.666    24617619.982
  23778385.809    -9411327.41349  -7094886.58645  23778385.177    23778397.181
  23311909.435    12805872.06749   9973978.07246  23311908.862    23311913.479
  22425391.763   -16166325.96249 -12561276.62446  22425390.965    22425396.439
  21704334.386    -7141200.52449  -5547967.36247  21704333.983    21704338.694
 03  6  9 23 57 30.0000000  0  7G30G25G16G 1G14G20G11
  24395582.808    -7084249.91649  -4852056.16545  24395582.930    24395589.407
  20658775.582    -9087716.60649  -7066569.89648  20658775.287    20658778.872
  24600099.753    -3540264.88449  -2735800.72145  24600099.227    24600113.438
  23764892.954    -9482231.58249  -7150136.26045  23764892.408    23764904.265
  23326250.392    12881234.24849  10032701.81846  23326249.823    23326254.445
  22409342.637   -16250664.22149 -12626994.63346  22409341.826    22409347.318
  21710787.774    -7107287.90649  -5521541.98047  21710787.375    21710792.097
 03  6  9 23 58  0.0000000  0  7G30G25G16G 1G14G20G11
  24400348.287    -7059206.92449  -4832542.16545  24400348.370    24400354.932
  20663047.783    -9065266.03949  -7049075.93248  20663047.470    20663051.069
  24582583.218    -3632312.85549  -2807525.88445  24582582.712    24582596.843
  23751423.909    -9553010.51849  -7205288.33045  23751423.332    23751435.152
  23340598.377    12956633.12649  10091454.18446  23340597.800    23340602.443
  22393322.517   -16334850.01349 -12692593.84046  22393321.726    22393327.175
  21717336.415    -7072874.72449  -5494726.54947  21717335.991    21717340.726
 03  6  9 23 58 30.0000000  0  7G30G25G16G 1G14G20G11
  24405215.418    -7033630.47349  -4812612.48445  24405215.421    24405222.060
  20667410.585    -9042339.17149  -7031210.82548  20667410.290    20667413.888
  24565057.054    -3724411.44449  -2879290.47845  24565056.656    24565070.708
  23737978.632    -9623664.70049  -7260343.19845  23737978.030    23737989.757
  23354953.132    13032067.89449  10150234.50446  23354952.523    23354957.221
  22377331.723   -16418881.74649 -12758073.01246  22377330.936    22377336.371
  21723979.911    -7037963.03749  -5467522.66547  21723979.512    21723984.261
 03  6  9 23 59  0.0000000  0  7G30G25G16G 1G14G20G11
  24410183.910    -7007520.68849  -4792267.21945  24410184.071    24410190.591
  20671863.918    -9018936.78649  -7012975.19048  20671863.617    20671867.196
  24547521.928    -3816557.50349  -2951092.08645  24547521.466    24547535.372
  23724557.145    -9694193.87349  -7315300.63945  23724556.572    23724568.159
  23369314.660    13107538.01449  10209042.36746  23369314.050    23369318.751
  22361370.717   -16502757.15349 -12823430.36646  22361369.906    22361375.300
  21730718.101    -7002553.95749  -5439931.20847  21730717.657    21730722.426
